Wetterdaten: Dienstag, 27.07.2021
Datum Zeit Temp. Aussen Temp. o. S. Temp +5cm Feuchte Auss Luftdruck Regen Sonnenschein Regendauer Solar Windben Empfang
27.07.2021 00:00 18,9 C 18,3 C 16,7 C 89 % 1011,9 hPa 0,0 l/m 0 min 0 min 0 W/m 6,4 km/h (2 Bft) 100,00 %
27.07.2021 00:02 18,9 C 18,3 C 16,7 C 89 % 1011,9 hPa 0,0 l/m 0 min 0 min 0 W/m 9,7 km/h (2 Bft) 100,00 %
27.07.2021 00:04 18,9 C 18,3 C 16,7 C 89 % 1011,9 hPa 0,0 l/m 0 min 0 min 0 W/m 9,7 km/h (2 Bft) 97,83 %
27.07.2021 00:08 18,9 C 18,3 C 16,7 C 89 % 1012,0 hPa 0,0 l/m 0 min 0 min 0 W/m 9,7 km/h (2 Bft) 100,00 %
27.07.2021 00:10 18,9 C 18,3 C 16,7 C 89 % 1012,0 hPa 0,0 l/m 0 min 0 min 0 W/m 12,9 km/h (3 Bft) 100,00 %
27.07.2021 00:12 18,9 C 18,3 C 16,7 C 89 % 1012,0 hPa 0,0 l/m 0 min 0 min 0 W/m 6,4 km/h (2 Bft) 100,00 %
27.07.2021 00:14 19,0 C 18,3 C 16,7 C 89 % 1012,0 hPa 0,0 l/m 0 min 0 min 0 W/m 6,4 km/h (2 Bft) 97,87 %
27.07.2021 00:16 19,0 C 18,3 C 16,7 C 89 % 1012,0 hPa 0,0 l/m 0 min 0 min 0 W/m 6,4 km/h (2 Bft) 100,00 %
27.07.2021 00:18 19,0 C 18,3 C 16,7 C 89 % 1012,0 hPa 0,0 l/m 0 min 0 min 0 W/m 9,7 km/h (2 Bft) 100,00 %
27.07.2021 00:20 19,0 C 18,3 C 16,7 C 89 % 1012,1 hPa 0,0 l/m 0 min 0 min 0 W/m 3,2 km/h (1 Bft) 97,87 %
27.07.2021 00:22 19,0 C 18,3 C 16,7 C 89 % 1012,1 hPa 0,0 l/m 0 min 0 min 0 W/m 3,2 km/h (1 Bft) 100,00 %
27.07.2021 00:24 19,0 C 18,3 C 16,7 C 89 % 1012,0 hPa 0,0 l/m 0 min 0 min 0 W/m 3,2 km/h (1 Bft) 100,00 %
27.07.2021 00:26 19,0 C 18,3 C 16,7 C 89 % 1012,1 hPa 0,0 l/m 0 min 0 min 0 W/m 3,2 km/h (1 Bft) 97,87 %
27.07.2021 00:28 19,0 C 18,3 C 16,7 C 89 % 1012,0 hPa 0,0 l/m 0 min 0 min 0 W/m 6,4 km/h (2 Bft) 100,00 %
27.07.2021 00:30 19,0 C 18,3 C 16,7 C 89 % 1012,1 hPa 0,0 l/m 0 min 0 min 0 W/m 6,4 km/h (2 Bft) 100,00 %
27.07.2021 00:32 19,0 C 18,3 C 16,7 C 89 % 1012,1 hPa 0,0 l/m 0 min 0 min 0 W/m 3,2 km/h (1 Bft) 100,00 %
27.07.2021 00:34 19,0 C 18,3 C 16,7 C 89 % 1012,1 hPa 0,0 l/m 0 min 0 min 0 W/m 6,4 km/h (2 Bft) 100,00 %
27.07.2021 00:36 18,9 C 18,3 C 16,7 C 89 % 1012,1 hPa 0,0 l/m 0 min 0 min 0 W/m 6,4 km/h (2 Bft) 100,00 %
27.07.2021 00:38 18,9 C 18,3 C 16,7 C 89 % 1012,1 hPa 0,0 l/m 0 min 0 min 0 W/m 6,4 km/h (2 Bft) 100,00 %
27.07.2021 00:40 18,9 C 18,3 C 17,3 C 89 % 1012,1 hPa 0,0 l/m 0 min 0 min 0 W/m 6,4 km/h (2 Bft) 100,00 %
27.07.2021 00:42 18,9 C 18,3 C 16,7 C 89 % 1012,1 hPa 0,0 l/m 0 min 0 min 0 W/m 3,2 km/h (1 Bft) 100,00 %
27.07.2021 00:44 18,9 C 18,3 C 17,3 C 89 % 1012,1 hPa 0,0 l/m 0 min 0 min 0 W/m 3,2 km/h (1 Bft) 97,87 %
27.07.2021 00:46 18,9 C 18,3 C 17,3 C 89 % 1012,1 hPa 0,0 l/m 0 min 0 min 0 W/m 6,4 km/h (2 Bft) 97,87 %
27.07.2021 00:48 18,9 C 18,3 C 17,3 C 89 % 1012,0 hPa 0,0 l/m 0 min 0 min 0 W/m 12,9 km/h (3 Bft) 100,00 %
27.07.2021 00:50 18,9 C 18,3 C 17,3 C 89 % 1012,0 hPa 0,0 l/m 0 min 0 min 0 W/m 22,5 km/h (4 Bft) 100,00 %
27.07.2021 00:52 18,9 C 18,3 C 17,3 C 89 % 1012,0 hPa 0,0 l/m 0 min 0 min 0 W/m 6,4 km/h (2 Bft) 97,83 %
27.07.2021 00:54 18,9 C 18,3 C 17,3 C 89 % 1012,0 hPa 0,0 l/m 0 min 0 min 0 W/m 6,4 km/h (2 Bft) 100,00 %
27.07.2021 00:56 18,9 C 18,3 C 17,3 C 89 % 1012,1 hPa 0,0 l/m 0 min 0 min 0 W/m 3,2 km/h (1 Bft) 97,87 %
27.07.2021 00:58 18,9 C 18,3 C 17,3 C 89 % 1012,1 hPa 0,0 l/m 0 min 0 min 0 W/m 3,2 km/h (1 Bft) 100,00 %
27.07.2021 01:00 18,9 C 18,3 C 17,3 C 90 % 1012,1 hPa 0,0 l/m 0 min 0 min 0 W/m 6,4 km/h (2 Bft) 100,00 %
27.07.2021 01:02 18,8 C 18,3 C 17,3 C 90 % 1012,1 hPa 0,0 l/m 0 min 0 min 0 W/m 6,4 km/h (2 Bft) 100,00 %
27.07.2021 01:04 18,8 C 18,3 C 17,3 C 90 % 1012,1 hPa 0,0 l/m 0 min 0 min 0 W/m 16,1 km/h (3 Bft) 100,00 %
27.07.2021 01:06 18,8 C 17,8 C 17,3 C 90 % 1012,1 hPa 0,0 l/m 0 min 0 min 0 W/m 12,9 km/h (3 Bft) 97,87 %
27.07.2021 01:08 18,8 C 17,8 C 17,3 C 90 % 1012,1 hPa 0,0 l/m 0 min 0 min 0 W/m 6,4 km/h (2 Bft) 100,00 %
27.07.2021 01:10 18,8 C 17,8 C 17,3 C 90 % 1012,1 hPa 0,0 l/m 0 min 0 min 0 W/m 9,7 km/h (2 Bft) 100,00 %
27.07.2021 01:12 18,8 C 17,8 C 17,3 C 90 % 1012,1 hPa 0,0 l/m 0 min 0 min 0 W/m 6,4 km/h (2 Bft) 100,00 %
27.07.2021 01:14 18,8 C 17,8 C 17,3 C 90 % 1012,0 hPa 0,0 l/m 0 min 0 min 0 W/m 6,4 km/h (2 Bft) 100,00 %
27.07.2021 01:16 18,8 C 17,8 C 17,3 C 90 % 1012,0 hPa 0,0 l/m 0 min 0 min 0 W/m 6,4 km/h (2 Bft) 100,00 %
27.07.2021 01:18 18,8 C 17,8 C 17,3 C 90 % 1012,0 hPa 0,0 l/m 0 min 0 min 0 W/m 9,7 km/h (2 Bft) 100,00 %
27.07.2021 01:20 18,8 C 17,8 C 17,3 C 90 % 1012,0 hPa 0,0 l/m 0 min 0 min 0 W/m 6,4 km/h (2 Bft) 100,00 %
27.07.2021 01:22 18,8 C 17,8 C 17,3 C 90 % 1012,0 hPa 0,0 l/m 0 min 0 min 0 W/m 12,9 km/h (3 Bft) 100,00 %
27.07.2021 01:24 18,7 C 17,8 C 17,3 C 90 % 1012,0 hPa 0,0 l/m 0 min 0 min 0 W/m 9,7 km/h (2 Bft) 100,00 %
27.07.2021 01:26 18,7 C 17,8 C 17,3 C 90 % 1012,0 hPa 0,0 l/m 0 min 0 min 0 W/m 6,4 km/h (2 Bft) 100,00 %
27.07.2021 01:28 18,7 C 17,8 C 17,3 C 90 % 1012,0 hPa 0,0 l/m 0 min 0 min 0 W/m 3,2 km/h (1 Bft) 100,00 %
27.07.2021 01:30 18,6 C 17,8 C 17,3 C 90 % 1011,9 hPa 0,0 l/m 0 min 0 min 0 W/m 12,9 km/h (3 Bft) 97,87 %
27.07.2021 01:32 18,6 C 17,8 C 17,3 C 90 % 1012,0 hPa 0,0 l/m 0 min 0 min 0 W/m 6,4 km/h (2 Bft) 97,22 %
27.07.2021 01:34 18,6 C 17,8 C 16,7 C 90 % 1011,9 hPa 0,0 l/m 0 min 0 min 0 W/m 6,4 km/h (2 Bft) 97,87 %
27.07.2021 01:36 18,6 C 17,8 C 16,7 C 90 % 1011,9 hPa 0,0 l/m 0 min 0 min 0 W/m 6,4 km/h (2 Bft) 97,87 %
27.07.2021 01:38 18,6 C 17,8 C 16,7 C 90 % 1011,9 hPa 0,0 l/m 0 min 0 min 0 W/m 12,9 km/h (3 Bft) 98,31 %
27.07.2021 01:40 18,6 C 17,8 C 16,7 C 90 % 1011,9 hPa 0,0 l/m 0 min 0 min 0 W/m 12,9 km/h (3 Bft) 97,14 %
27.07.2021 01:42 18,6 C 17,8 C 16,7 C 90 % 1011,9 hPa 0,0 l/m 0 min 0 min 0 W/m 3,2 km/h (1 Bft) 95,65 %
27.07.2021 01:44 18,5 C 17,8 C 16,7 C 91 % 1011,9 hPa 0,0 l/m 0 min 0 min 0 W/m 6,4 km/h (2 Bft) 97,87 %
27.07.2021 01:46 18,5 C 17,8 C 16,7 C 91 % 1011,9 hPa 0,0 l/m 0 min 0 min 0 W/m 6,4 km/h (2 Bft) 96,00 %
27.07.2021 01:48 18,5 C 17,8 C 16,7 C 91 % 1011,9 hPa 0,0 l/m 0 min 0 min 0 W/m 16,1 km/h (3 Bft) 97,87 %
27.07.2021 01:50 18,5 C 17,8 C 16,7 C 91 % 1011,9 hPa 0,0 l/m 0 min 0 min 0 W/m 9,7 km/h (2 Bft) 97,87 %
27.07.2021 01:52 18,5 C 17,8 C 16,7 C 91 % 1011,9 hPa 0,0 l/m 0 min 0 min 0 W/m 12,9 km/h (3 Bft) 95,74 %
27.07.2021 01:54 18,4 C 17,8 C 16,7 C 91 % 1011,9 hPa 0,0 l/m 0 min 0 min 0 W/m 12,9 km/h (3 Bft) 97,83 %
27.07.2021 01:56 18,4 C 17,2 C 16,7 C 91 % 1012,0 hPa 0,0 l/m 0 min 0 min 0 W/m 6,4 km/h (2 Bft) 95,74 %
27.07.2021 01:58 18,4 C 17,2 C 16,7 C 91 % 1012,0 hPa 0,0 l/m 0 min 0 min 0 W/m 12,9 km/h (3 Bft) 95,74 %
27.07.2021 02:00 18,4 C 17,2 C 16,7 C 91 % 1012,0 hPa 0,0 l/m 0 min 0 min 0 W/m 6,4 km/h (2 Bft) 93,62 %
27.07.2021 02:02 18,4 C 17,2 C 16,7 C 91 % 1012,0 hPa 0,0 l/m 0 min 0 min 0 W/m 6,4 km/h (2 Bft) 93,75 %
27.07.2021 02:04 18,3 C 17,2 C 16,7 C 91 % 1012,0 hPa 0,0 l/m 0 min 0 min 0 W/m 12,9 km/h (3 Bft) 93,62 %
27.07.2021 02:06 18,3 C 17,2 C 16,7 C 91 % 1012,0 hPa 0,0 l/m 0 min 0 min 0 W/m 9,7 km/h (2 Bft) 95,65 %
27.07.2021 02:08 18,3 C 17,2 C 16,7 C 91 % 1012,0 hPa 0,0 l/m 0 min 0 min 0 W/m 6,4 km/h (2 Bft) 95,74 %
27.07.2021 02:10 18,3 C 17,2 C 16,7 C 91 % 1012,0 hPa 0,0 l/m 0 min 0 min 0 W/m 6,4 km/h (2 Bft) 93,62 %
27.07.2021 02:12 18,3 C 17,2 C 16,7 C 91 % 1012,0 hPa 0,0 l/m 0 min 0 min 0 W/m 3,2 km/h (1 Bft) 93,62 %
27.07.2021 02:14 18,2 C 17,2 C 16,7 C 92 % 1012,0 hPa 0,0 l/m 0 min 0 min 0 W/m 3,2 km/h (1 Bft) 93,62 %
27.07.2021 02:16 18,2 C 17,2 C 16,1 C 92 % 1012,1 hPa 0,0 l/m 0 min 0 min 0 W/m 3,2 km/h (1 Bft) 93,62 %
27.07.2021 02:18 18,2 C 17,2 C 16,1 C 92 % 1012,0 hPa 0,0 l/m 0 min 0 min 0 W/m 6,4 km/h (2 Bft) 95,65 %
27.07.2021 02:20 18,1 C 17,2 C 16,1 C 92 % 1012,1 hPa 0,0 l/m 0 min 0 min 0 W/m 6,4 km/h (2 Bft) 93,62 %
27.07.2021 02:22 18,1 C 17,2 C 16,1 C 92 % 1012,0 hPa 0,0 l/m 0 min 0 min 0 W/m 6,4 km/h (2 Bft) 95,74 %
27.07.2021 02:24 18,1 C 17,2 C 16,1 C 92 % 1012,1 hPa 0,0 l/m 0 min 0 min 0 W/m 3,2 km/h (1 Bft) 95,74 %
27.07.2021 02:26 18,1 C 17,2 C 16,1 C 92 % 1012,1 hPa 0,0 l/m 0 min 0 min 0 W/m 3,2 km/h (1 Bft) 95,74 %
27.07.2021 02:28 18,0 C 17,2 C 16,1 C 92 % 1012,1 hPa 0,0 l/m 0 min 0 min 0 W/m 6,4 km/h (2 Bft) 93,62 %
27.07.2021 02:30 18,0 C 16,7 C 16,1 C 92 % 1012,1 hPa 0,0 l/m 0 min 0 min 0 W/m 12,9 km/h (3 Bft) 93,48 %
27.07.2021 02:32 18,0 C 16,7 C 16,1 C 92 % 1012,1 hPa 0,0 l/m 0 min 0 min 0 W/m 6,4 km/h (2 Bft) 95,74 %
27.07.2021 02:34 18,0 C 16,7 C 16,1 C 92 % 1012,1 hPa 0,0 l/m 0 min 0 min 0 W/m 3,2 km/h (1 Bft) 95,74 %
27.07.2021 02:36 17,9 C 16,7 C 16,1 C 92 % 1012,1 hPa 0,0 l/m 0 min 0 min 0 W/m 12,9 km/h (3 Bft) 93,62 %
27.07.2021 02:38 17,9 C 16,7 C 16,1 C 92 % 1012,1 hPa 0,0 l/m 0 min 0 min 0 W/m 6,4 km/h (2 Bft) 95,74 %
27.07.2021 02:40 17,9 C 16,7 C 16,1 C 92 % 1012,1 hPa 0,0 l/m 0 min 0 min 0 W/m 6,4 km/h (2 Bft) 93,62 %
27.07.2021 02:42 17,9 C 16,7 C 16,1 C 92 % 1012,1 hPa 0,0 l/m 0 min 0 min 0 W/m 6,4 km/h (2 Bft) 95,65 %
27.07.2021 02:44 17,9 C 16,7 C 16,1 C 92 % 1012,1 hPa 0,0 l/m 0 min 0 min 0 W/m 6,4 km/h (2 Bft) 97,87 %
27.07.2021 02:46 17,9 C 16,7 C 16,1 C 92 % 1012,1 hPa 0,0 l/m 0 min 0 min 0 W/m 3,2 km/h (1 Bft) 97,87 %
27.07.2021 02:48 17,8 C 16,7 C 16,1 C 92 % 1012,2 hPa 0,0 l/m 0 min 0 min 0 W/m 6,4 km/h (2 Bft) 95,74 %
27.07.2021 02:50 17,8 C 16,7 C 16,1 C 93 % 1012,2 hPa 0,0 l/m 0 min 0 min 0 W/m 6,4 km/h (2 Bft) 97,87 %
27.07.2021 02:52 17,8 C 16,7 C 16,1 C 92 % 1012,2 hPa 0,0 l/m 0 min 0 min 0 W/m 6,4 km/h (2 Bft) 97,83 %
27.07.2021 02:54 17,8 C 16,7 C 16,1 C 92 % 1012,2 hPa 0,0 l/m 0 min 0 min 0 W/m 9,7 km/h (2 Bft) 97,87 %
27.07.2021 02:56 17,7 C 16,7 C 16,1 C 92 % 1012,2 hPa 0,0 l/m 0 min 0 min 0 W/m 6,4 km/h (2 Bft) 97,87 %
27.07.2021 02:58 17,6 C 16,7 C 16,1 C 93 % 1012,2 hPa 0,0 l/m 0 min 0 min 0 W/m 6,4 km/h (2 Bft) 95,74 %
27.07.2021 03:00 17,6 C 16,7 C 16,1 C 93 % 1012,2 hPa 0,0 l/m 0 min 0 min 0 W/m 6,4 km/h (2 Bft) 100,00 %
27.07.2021 03:02 17,6 C 16,7 C 16,1 C 93 % 1012,2 hPa 0,0 l/m 0 min 0 min 0 W/m 6,4 km/h (2 Bft) 95,74 %
27.07.2021 03:04 17,6 C 16,7 C 16,1 C 93 % 1012,1 hPa 0,0 l/m 0 min 0 min 0 W/m 3,2 km/h (1 Bft) 97,87 %
27.07.2021 03:06 17,6 C 16,7 C 16,1 C 93 % 1012,1 hPa 0,0 l/m 0 min 0 min 0 W/m 6,4 km/h (2 Bft) 97,83 %
27.07.2021 03:08 17,6 C 16,7 C 16,1 C 93 % 1012,2 hPa 0,0 l/m 0 min 0 min 0 W/m 3,2 km/h (1 Bft) 97,87 %
27.07.2021 03:10 17,6 C 16,7 C 16,1 C 93 % 1012,2 hPa 0,0 l/m 0 min 0 min 0 W/m 3,2 km/h (1 Bft) 95,74 %
27.07.2021 03:12 17,5 C 16,7 C 16,1 C 93 % 1012,2 hPa 0,0 l/m 0 min 0 min 0 W/m 3,2 km/h (1 Bft) 97,87 %
27.07.2021 03:14 17,5 C 16,7 C 16,1 C 93 % 1012,1 hPa 0,0 l/m 0 min 0 min 0 W/m 6,4 km/h (2 Bft) 97,87 %
27.07.2021 03:16 17,5 C 16,7 C 16,1 C 93 % 1012,1 hPa 0,0 l/m 0 min 0 min 0 W/m 3,2 km/h (1 Bft) 97,87 %
27.07.2021 03:18 17,5 C 16,7 C 16,1 C 93 % 1012,1 hPa 0,0 l/m 0 min 0 min 0 W/m 6,4 km/h (2 Bft) 97,83 %
27.07.2021 03:20 17,5 C 16,7 C 16,1 C 93 % 1012,1 hPa 0,0 l/m 0 min 0 min 0 W/m 0,0 km/h (0 Bft) 97,87 %
27.07.2021 03:22 17,5 C 16,7 C 16,1 C 93 % 1012,2 hPa 0,0 l/m 0 min 0 min 0 W/m 9,7 km/h (2 Bft) 97,87 %
27.07.2021 03:24 17,5 C 16,7 C 16,1 C 93 % 1012,1 hPa 0,0 l/m 0 min 0 min 0 W/m 3,2 km/h (1 Bft) 97,87 %
27.07.2021 03:26 17,4 C 16,7 C 16,1 C 93 % 1012,1 hPa 0,0 l/m 0 min 0 min 0 W/m 3,2 km/h (1 Bft) 97,87 %
27.07.2021 03:28 17,4 C 16,7 C 16,1 C 93 % 1012,1 hPa 0,0 l/m 0 min 0 min 0 W/m 3,2 km/h (1 Bft) 97,87 %
27.07.2021 03:30 17,4 C 16,7 C 16,1 C 93 % 1012,1 hPa 0,0 l/m 0 min 0 min 0 W/m 6,4 km/h (2 Bft) 97,83 %
27.07.2021 03:32 17,4 C 16,7 C 16,1 C 93 % 1012,1 hPa 0,0 l/m 0 min 0 min 0 W/m 3,2 km/h (1 Bft) 95,83 %
27.07.2021 03:34 17,4 C 16,7 C 16,1 C 93 % 1012,1 hPa 0,0 l/m 0 min 0 min 0 W/m 3,2 km/h (1 Bft) 97,87 %
27.07.2021 03:36 17,4 C 16,7 C 16,1 C 94 % 1012,1 hPa 0,0 l/m 0 min 0 min 0 W/m 3,2 km/h (1 Bft) 97,87 %
27.07.2021 03:38 17,4 C 16,1 C 16,1 C 94 % 1012,1 hPa 0,0 l/m 0 min 0 min 0 W/m 3,2 km/h (1 Bft) 98,00 %
27.07.2021 03:40 17,4 C 16,7 C 16,1 C 94 % 1012,1 hPa 0,0 l/m 0 min 0 min 0 W/m 9,7 km/h (2 Bft) 97,83 %
27.07.2021 03:42 17,4 C 16,7 C 16,1 C 94 % 1012,0 hPa 0,0 l/m 0 min 0 min 0 W/m 3,2 km/h (1 Bft) 97,87 %
27.07.2021 03:44 17,4 C 16,7 C 16,1 C 94 % 1012,0 hPa 0,0 l/m 0 min 0 min 0 W/m 0,0 km/h (0 Bft) 97,87 %
27.07.2021 03:46 17,4 C 16,7 C 16,1 C 94 % 1012,1 hPa 0,0 l/m 0 min 0 min 0 W/m 0,0 km/h (0 Bft) 97,87 %
27.07.2021 03:48 17,4 C 16,7 C 16,1 C 94 % 1012,0 hPa 0,0 l/m 0 min 0 min 0 W/m 9,7 km/h (2 Bft) 95,74 %
27.07.2021 03:50 17,3 C 16,1 C 16,1 C 94 % 1012,1 hPa 0,0 l/m 0 min 0 min 0 W/m 3,2 km/h (1 Bft) 97,87 %
27.07.2021 03:52 17,3 C 16,1 C 16,1 C 94 % 1012,1 hPa 0,0 l/m 0 min 0 min 0 W/m 3,2 km/h (1 Bft) 97,83 %
27.07.2021 03:54 17,3 C 16,1 C 16,1 C 94 % 1012,1 hPa 0,0 l/m 0 min 0 min 0 W/m 3,2 km/h (1 Bft) 97,87 %
27.07.2021 03:56 17,3 C 16,1 C 16,1 C 94 % 1012,1 hPa 0,0 l/m 0 min 0 min 0 W/m 3,2 km/h (1 Bft) 95,74 %
27.07.2021 03:58 17,3 C 16,1 C 16,1 C 94 % 1012,1 hPa 0,0 l/m 0 min 0 min 0 W/m 3,2 km/h (1 Bft) 95,74 %
27.07.2021 04:00 17,3 C 16,1 C 16,1 C 94 % 1012,1 hPa 0,0 l/m 0 min 0 min 0 W/m 6,4 km/h (2 Bft) 97,87 %
27.07.2021 04:02 17,3 C 16,7 C 16,1 C 94 % 1012,1 hPa 0,0 l/m 0 min 0 min 0 W/m 6,4 km/h (2 Bft) 100,00 %
27.07.2021 04:04 17,3 C 16,7 C 16,1 C 94 % 1012,1 hPa 0,0 l/m 0 min 0 min 0 W/m 6,4 km/h (2 Bft) 93,62 %
27.07.2021 04:06 17,3 C 16,7 C 16,1 C 94 % 1012,1 hPa 0,0 l/m 0 min 0 min 0 W/m 3,2 km/h (1 Bft) 100,00 %
27.07.2021 04:08 17,3 C 16,7 C 16,1 C 94 % 1012,1 hPa 0,0 l/m 0 min 0 min 0 W/m 3,2 km/h (1 Bft) 100,00 %
27.07.2021 04:10 17,3 C 16,7 C 16,1 C 94 % 1012,0 hPa 0,0 l/m 0 min 0 min 0 W/m 3,2 km/h (1 Bft) 100,00 %
27.07.2021 04:12 17,3 C 16,7 C 16,1 C 94 % 1012,0 hPa 0,0 l/m 0 min 0 min 0 W/m 6,4 km/h (2 Bft) 100,00 %
27.07.2021 04:14 17,3 C 16,7 C 16,1 C 94 % 1012,0 hPa 0,0 l/m 0 min 0 min 0 W/m 6,4 km/h (2 Bft) 97,87 %
27.07.2021 04:16 17,3 C 16,7 C 16,1 C 94 % 1012,0 hPa 0,0 l/m 0 min 0 min 0 W/m 3,2 km/h (1 Bft) 100,00 %
27.07.2021 04:18 17,3 C 16,7 C 16,1 C 94 % 1012,0 hPa 0,0 l/m 0 min 0 min 0 W/m 3,2 km/h (1 Bft) 100,00 %
27.07.2021 04:20 17,3 C 16,7 C 16,1 C 94 % 1011,9 hPa 0,0 l/m 0 min 0 min 0 W/m 9,7 km/h (2 Bft) 100,00 %
27.07.2021 04:22 17,3 C 16,7 C 16,1 C 94 % 1011,9 hPa 0,0 l/m 0 min 0 min 0 W/m 3,2 km/h (1 Bft) 100,00 %
27.07.2021 04:24 17,3 C 16,1 C 16,1 C 94 % 1011,9 hPa 0,0 l/m 0 min 0 min 0 W/m 3,2 km/h (1 Bft) 100,00 %
27.07.2021 04:26 17,3 C 16,1 C 16,1 C 94 % 1012,0 hPa 0,0 l/m 0 min 0 min 0 W/m 3,2 km/h (1 Bft) 95,74 %
27.07.2021 04:28 17,2 C 16,1 C 16,1 C 94 % 1012,0 hPa 0,0 l/m 0 min 0 min 0 W/m 6,4 km/h (2 Bft) 93,48 %
27.07.2021 04:30 17,2 C 16,1 C 16,1 C 94 % 1012,0 hPa 0,0 l/m 0 min 0 min 0 W/m 6,4 km/h (2 Bft) 97,87 %
27.07.2021 04:32 17,1 C 16,1 C 16,1 C 94 % 1012,0 hPa 0,0 l/m 0 min 0 min 0 W/m 6,4 km/h (2 Bft) 97,87 %
27.07.2021 04:34 17,1 C 16,1 C 16,1 C 94 % 1012,1 hPa 0,0 l/m 0 min 0 min 0 W/m 9,7 km/h (2 Bft) 93,62 %
27.07.2021 04:36 17,1 C 16,1 C 16,1 C 94 % 1012,1 hPa 0,0 l/m 0 min 0 min 0 W/m 9,7 km/h (2 Bft) 97,87 %
27.07.2021 04:38 17,1 C 16,1 C 16,1 C 94 % 1012,0 hPa 0,0 l/m 0 min 0 min 0 W/m 3,2 km/h (1 Bft) 93,62 %
27.07.2021 04:40 17,1 C 16,1 C 16,1 C 94 % 1012,1 hPa 0,0 l/m 0 min 0 min 0 W/m 6,4 km/h (2 Bft) 97,83 %
27.07.2021 04:42 17,1 C 16,1 C 16,1 C 94 % 1012,1 hPa 0,0 l/m 0 min 0 min 0 W/m 3,2 km/h (1 Bft) 93,62 %
27.07.2021 04:44 17,1 C 16,1 C 16,1 C 94 % 1012,1 hPa 0,0 l/m 0 min 0 min 0 W/m 3,2 km/h (1 Bft) 95,74 %
27.07.2021 04:46 17,0 C 16,1 C 16,1 C 94 % 1012,1 hPa 0,0 l/m 0 min 0 min 0 W/m 3,2 km/h (1 Bft) 93,62 %
27.07.2021 04:48 17,0 C 16,1 C 16,1 C 94 % 1012,0 hPa 0,0 l/m 0 min 0 min 0 W/m 6,4 km/h (2 Bft) 93,62 %
27.07.2021 04:50 17,0 C 16,1 C 16,1 C 94 % 1012,0 hPa 0,0 l/m 0 min 0 min 0 W/m 3,2 km/h (1 Bft) 95,74 %
27.07.2021 04:52 17,0 C 16,1 C 16,1 C 94 % 1012,0 hPa 0,0 l/m 0 min 0 min 0 W/m 3,2 km/h (1 Bft) 95,65 %
27.07.2021 04:54 17,0 C 16,1 C 16,1 C 94 % 1012,0 hPa 0,0 l/m 0 min 0 min 0 W/m 3,2 km/h (1 Bft) 95,74 %
27.07.2021 04:56 17,0 C 16,1 C 16,1 C 94 % 1012,0 hPa 0,0 l/m 0 min 0 min 0 W/m 3,2 km/h (1 Bft) 93,62 %
27.07.2021 04:58 17,0 C 16,1 C 16,1 C 94 % 1012,1 hPa 0,0 l/m 0 min 0 min 0 W/m 3,2 km/h (1 Bft) 95,74 %
27.07.2021 05:00 17,0 C 16,1 C 16,1 C 94 % 1012,1 hPa 0,0 l/m 0 min 0 min 0 W/m 3,2 km/h (1 Bft) 95,74 %
27.07.2021 05:02 16,9 C 16,1 C 16,1 C 95 % 1012,1 hPa 0,0 l/m 0 min 0 min 0 W/m 6,4 km/h (2 Bft) 93,62 %
27.07.2021 05:04 16,9 C 16,1 C 16,1 C 95 % 1012,0 hPa 0,0 l/m 0 min 0 min 0 W/m 3,2 km/h (1 Bft) 93,48 %
27.07.2021 05:06 16,9 C 15,6 C 16,1 C 95 % 1012,0 hPa 0,0 l/m 0 min 0 min 0 W/m 6,4 km/h (2 Bft) 95,74 %
27.07.2021 05:08 16,9 C 15,6 C 15,6 C 95 % 1012,0 hPa 0,0 l/m 0 min 0 min 0 W/m 3,2 km/h (1 Bft) 96,08 %
27.07.2021 05:10 16,9 C 15,6 C 15,6 C 95 % 1012,0 hPa 0,0 l/m 0 min 0 min 0 W/m 6,4 km/h (2 Bft) 95,74 %
27.07.2021 05:12 16,9 C 15,6 C 15,6 C 95 % 1012,0 hPa 0,0 l/m 0 min 0 min 0 W/m 6,4 km/h (2 Bft) 93,62 %
27.07.2021 05:14 16,9 C 15,6 C 15,6 C 95 % 1012,0 hPa 0,0 l/m 0 min 0 min 0 W/m 3,2 km/h (1 Bft) 93,48 %
27.07.2021 05:16 16,9 C 15,6 C 16,1 C 95 % 1012,0 hPa 0,0 l/m 0 min 0 min 0 W/m 3,2 km/h (1 Bft) 97,87 %
27.07.2021 05:18 16,8 C 15,6 C 15,6 C 95 % 1012,0 hPa 0,0 l/m 0 min 0 min 0 W/m 6,4 km/h (2 Bft) 97,87 %
27.07.2021 05:20 16,8 C 15,6 C 15,6 C 95 % 1012,0 hPa 0,0 l/m 0 min 0 min 0 W/m 6,4 km/h (2 Bft) 97,87 %
27.07.2021 05:22 16,8 C 15,6 C 15,6 C 95 % 1012,0 hPa 0,0 l/m 0 min 0 min 0 W/m 3,2 km/h (1 Bft) 97,87 %
27.07.2021 05:24 16,8 C 15,6 C 15,6 C 95 % 1012,0 hPa 0,0 l/m 0 min 0 min 0 W/m 3,2 km/h (1 Bft) 97,87 %
27.07.2021 05:26 16,8 C 15,6 C 15,6 C 95 % 1012,0 hPa 0,0 l/m 0 min 0 min 0 W/m 3,2 km/h (1 Bft) 95,65 %
27.07.2021 05:28 16,7 C 15,6 C 15,6 C 95 % 1012,0 hPa 0,0 l/m 0 min 0 min 0 W/m 0,0 km/h (0 Bft) 100,00 %
27.07.2021 05:30 16,7 C 15,6 C 15,6 C 95 % 1012,0 hPa 0,0 l/m 0 min 0 min 0 W/m 3,2 km/h (1 Bft) 97,87 %
27.07.2021 05:32 16,7 C 15,6 C 15,6 C 95 % 1012,1 hPa 0,0 l/m 0 min 0 min 0 W/m 6,4 km/h (2 Bft) 97,87 %
27.07.2021 05:34 16,6 C 15,6 C 15,6 C 95 % 1012,0 hPa 0,0 l/m 0 min 0 min 0 W/m 3,2 km/h (1 Bft) 100,00 %
27.07.2021 05:36 16,6 C 15,6 C 15,6 C 95 % 1012,1 hPa 0,0 l/m 0 min 0 min 0 W/m 3,2 km/h (1 Bft) 100,00 %
27.07.2021 05:38 16,6 C 15,6 C 15,6 C 95 % 1012,1 hPa 0,0 l/m 0 min 0 min 0 W/m 3,2 km/h (1 Bft) 100,00 %
27.07.2021 05:40 16,6 C 15,6 C 15,6 C 95 % 1012,0 hPa 0,0 l/m 0 min 0 min 0 W/m 3,2 km/h (1 Bft) 97,87 %
27.07.2021 05:42 16,6 C 15,6 C 15,6 C 95 % 1012,1 hPa 0,0 l/m 0 min 0 min 0 W/m 3,2 km/h (1 Bft) 100,00 %
27.07.2021 05:44 16,6 C 15,6 C 15,6 C 95 % 1012,1 hPa 0,0 l/m 0 min 0 min 0 W/m 3,2 km/h (1 Bft) 100,00 %
27.07.2021 05:46 16,6 C 15,6 C 15,6 C 95 % 1012,1 hPa 0,0 l/m 0 min 0 min 0 W/m 6,4 km/h (2 Bft) 100,00 %
27.07.2021 05:48 16,6 C 15,6 C 15,6 C 95 % 1012,1 hPa 0,0 l/m 0 min 0 min 0 W/m 3,2 km/h (1 Bft) 100,00 %
27.07.2021 05:50 16,6 C 15,6 C 15,6 C 95 % 1012,1 hPa 0,0 l/m 0 min 0 min 0 W/m 3,2 km/h (1 Bft) 100,00 %
27.07.2021 05:52 16,5 C 15,6 C 15,6 C 95 % 1012,1 hPa 0,0 l/m 0 min 0 min 0 W/m 3,2 km/h (1 Bft) 97,87 %
27.07.2021 05:54 16,5 C 15,6 C 15,6 C 95 % 1012,1 hPa 0,0 l/m 0 min 0 min 3 W/m 9,7 km/h (2 Bft) 100,00 %
27.07.2021 05:56 16,5 C 15,6 C 15,6 C 95 % 1012,2 hPa 0,0 l/m 0 min 0 min 5 W/m 6,4 km/h (2 Bft) 100,00 %
27.07.2021 05:58 16,5 C 15,6 C 15,6 C 95 % 1012,3 hPa 0,0 l/m 0 min 0 min 7 W/m 3,2 km/h (1 Bft) 100,00 %
27.07.2021 06:00 16,5 C 15,6 C 15,6 C 95 % 1012,2 hPa 0,0 l/m 0 min 0 min 7 W/m 3,2 km/h (1 Bft) 100,00 %
27.07.2021 06:02 16,5 C 15,6 C 15,6 C 95 % 1012,2 hPa 0,0 l/m 0 min 0 min 9 W/m 3,2 km/h (1 Bft) 100,00 %
27.07.2021 06:04 16,5 C 15,6 C 16,1 C 95 % 1012,2 hPa 0,0 l/m 0 min 0 min 11 W/m 6,4 km/h (2 Bft) 100,00 %
27.07.2021 06:08 16,5 C 15,6 C 16,1 C 95 % 1012,3 hPa 0,0 l/m 0 min 0 min 12 W/m 3,2 km/h (1 Bft) 100,00 %
27.07.2021 06:10 16,5 C 15,6 C 15,6 C 95 % 1012,3 hPa 0,0 l/m 0 min 0 min 14 W/m 12,9 km/h (3 Bft) 100,00 %
27.07.2021 06:12 16,5 C 15,6 C 16,1 C 95 % 1012,2 hPa 0,0 l/m 0 min 0 min 17 W/m 3,2 km/h (1 Bft) 97,87 %
27.07.2021 06:14 16,5 C 15,6 C 16,1 C 95 % 1012,2 hPa 0,0 l/m 0 min 0 min 19 W/m 3,2 km/h (1 Bft) 100,00 %
27.07.2021 06:16 16,5 C 15,6 C 16,1 C 95 % 1012,2 hPa 0,0 l/m 0 min 0 min 20 W/m 3,2 km/h (1 Bft) 100,00 %
27.07.2021 06:18 16,5 C 15,6 C 16,1 C 95 % 1012,2 hPa 0,0 l/m 0 min 0 min 22 W/m 6,4 km/h (2 Bft) 100,00 %
27.07.2021 06:20 16,5 C 16,1 C 16,1 C 96 % 1012,2 hPa 0,0 l/m 0 min 0 min 25 W/m 3,2 km/h (1 Bft) 100,00 %
27.07.2021 06:22 16,5 C 16,1 C 16,1 C 95 % 1012,2 hPa 0,0 l/m 0 min 0 min 27 W/m 3,2 km/h (1 Bft) 100,00 %
27.07.2021 06:24 16,5 C 16,1 C 16,1 C 95 % 1012,2 hPa 0,0 l/m 2 min 0 min 33 W/m 3,2 km/h (1 Bft) 100,00 %
27.07.2021 06:26 16,6 C 16,1 C 16,1 C 96 % 1012,2 hPa 0,0 l/m 2 min 0 min 37 W/m 6,4 km/h (2 Bft) 100,00 %
27.07.2021 06:28 16,5 C 16,1 C 16,1 C 96 % 1012,3 hPa 0,0 l/m 2 min 0 min 43 W/m 3,2 km/h (1 Bft) 100,00 %
27.07.2021 06:30 16,5 C 16,1 C 16,1 C 96 % 1012,3 hPa 0,0 l/m 2 min 0 min 46 W/m 3,2 km/h (1 Bft) 95,74 %
27.07.2021 06:32 16,6 C 16,1 C 16,1 C 96 % 1012,2 hPa 0,0 l/m 2 min 0 min 47 W/m 9,7 km/h (2 Bft) 100,00 %
27.07.2021 06:34 16,6 C 16,1 C 16,1 C 96 % 1012,3 hPa 0,0 l/m 2 min 0 min 44 W/m 3,2 km/h (1 Bft) 100,00 %
27.07.2021 06:36 16,6 C 16,1 C 16,1 C 96 % 1012,2 hPa 0,0 l/m 2 min 0 min 46 W/m 3,2 km/h (1 Bft) 100,00 %
27.07.2021 06:38 16,6 C 16,1 C 16,1 C 96 % 1012,2 hPa 0,0 l/m 2 min 0 min 48 W/m 6,4 km/h (2 Bft) 100,00 %
27.07.2021 06:40 16,6 C 16,1 C 16,7 C 96 % 1012,2 hPa 0,0 l/m 0 min 0 min 47 W/m 3,2 km/h (1 Bft) 100,00 %
27.07.2021 06:42 16,6 C 16,1 C 16,7 C 96 % 1012,3 hPa 0,0 l/m 0 min 0 min 49 W/m 3,2 km/h (1 Bft) 97,87 %
27.07.2021 06:44 16,6 C 16,1 C 16,7 C 96 % 1012,3 hPa 0,0 l/m 0 min 0 min 52 W/m 6,4 km/h (2 Bft) 100,00 %
27.07.2021 06:46 16,7 C 16,1 C 16,7 C 96 % 1012,2 hPa 0,0 l/m 0 min 0 min 54 W/m 6,4 km/h (2 Bft) 100,00 %
27.07.2021 06:48 16,7 C 16,1 C 16,7 C 96 % 1012,2 hPa 0,0 l/m 0 min 0 min 57 W/m 6,4 km/h (2 Bft) 100,00 %
27.07.2021 06:50 16,7 C 16,1 C 16,7 C 96 % 1012,2 hPa 0,0 l/m 0 min 0 min 60 W/m 6,4 km/h (2 Bft) 100,00 %
27.07.2021 06:52 16,7 C 16,7 C 16,7 C 96 % 1012,1 hPa 0,0 l/m 0 min 0 min 60 W/m 6,4 km/h (2 Bft) 95,65 %
27.07.2021 06:54 16,7 C 16,7 C 16,7 C 96 % 1012,1 hPa 0,0 l/m 0 min 0 min 60 W/m 3,2 km/h (1 Bft) 100,00 %
27.07.2021 06:56 16,7 C 16,7 C 16,7 C 96 % 1012,1 hPa 0,0 l/m 0 min 0 min 59 W/m 6,4 km/h (2 Bft) 100,00 %
27.07.2021 06:58 16,8 C 16,7 C 16,7 C 96 % 1012,2 hPa 0,0 l/m 0 min 0 min 56 W/m 3,2 km/h (1 Bft) 100,00 %
27.07.2021 07:00 16,8 C 16,7 C 16,7 C 96 % 1012,1 hPa 0,0 l/m 0 min 0 min 54 W/m 3,2 km/h (1 Bft) 100,00 %
27.07.2021 07:02 16,8 C 16,7 C 16,7 C 96 % 1012,1 hPa 0,0 l/m 0 min 0 min 54 W/m 6,4 km/h (2 Bft) 97,83 %
27.07.2021 07:04 16,8 C 16,7 C 16,7 C 96 % 1012,2 hPa 0,0 l/m 0 min 0 min 52 W/m 3,2 km/h (1 Bft) 85,11 %
27.07.2021 07:06 16,8 C 16,7 C 16,7 C 96 % 1012,2 hPa 0,0 l/m 0 min 0 min 48 W/m 6,4 km/h (2 Bft) 67,50 %
27.07.2021 07:08 16,8 C 16,7 C 16,7 C 96 % 1012,2 hPa 0,0 l/m 0 min 0 min 44 W/m 9,7 km/h (2 Bft) 100,00 %
27.07.2021 07:10 16,8 C 16,7 C 16,7 C 96 % 1012,2 hPa 0,0 l/m 0 min 0 min 48 W/m 6,4 km/h (2 Bft) 100,00 %
27.07.2021 07:12 16,8 C 16,7 C 16,7 C 96 % 1012,2 hPa 0,0 l/m 0 min 0 min 47 W/m 16,1 km/h (3 Bft) 100,00 %
27.07.2021 07:14 16,8 C 16,7 C 16,7 C 96 % 1012,2 hPa 0,0 l/m 0 min 0 min 42 W/m 6,4 km/h (2 Bft) 97,83 %
27.07.2021 07:16 16,8 C 16,7 C 16,7 C 96 % 1012,2 hPa 0,0 l/m 0 min 0 min 38 W/m 6,4 km/h (2 Bft) 100,00 %
27.07.2021 07:18 16,8 C 16,7 C 16,7 C 96 % 1012,2 hPa 0,0 l/m 0 min 0 min 37 W/m 3,2 km/h (1 Bft) 100,00 %
27.07.2021 07:20 16,9 C 16,7 C 16,7 C 96 % 1012,2 hPa 0,0 l/m 0 min 0 min 35 W/m 3,2 km/h (1 Bft) 100,00 %
27.07.2021 07:22 16,9 C 16,7 C 16,7 C 96 % 1012,2 hPa 0,0 l/m 0 min 0 min 35 W/m 6,4 km/h (2 Bft) 97,87 %
27.07.2021 07:24 16,9 C 16,7 C 16,7 C 96 % 1012,2 hPa 0,0 l/m 0 min 0 min 34 W/m 6,4 km/h (2 Bft) 95,74 %
27.07.2021 07:26 16,9 C 16,7 C 16,7 C 96 % 1012,2 hPa 0,0 l/m 0 min 0 min 36 W/m 6,4 km/h (2 Bft) 93,48 %
27.07.2021 07:28 16,9 C 16,7 C 16,7 C 96 % 1012,2 hPa 0,0 l/m 0 min 0 min 37 W/m 3,2 km/h (1 Bft) 95,74 %
27.07.2021 07:30 16,9 C 16,7 C 16,7 C 96 % 1012,2 hPa 0,0 l/m 0 min 0 min 35 W/m 12,9 km/h (3 Bft) 95,74 %
27.07.2021 07:32 16,9 C 16,7 C 16,7 C 96 % 1012,2 hPa 0,0 l/m 0 min 0 min 38 W/m 6,4 km/h (2 Bft) 95,74 %
27.07.2021 07:34 17,0 C 16,7 C 16,7 C 96 % 1012,2 hPa 0,0 l/m 0 min 0 min 41 W/m 6,4 km/h (2 Bft) 89,36 %
27.07.2021 07:36 17,0 C 16,7 C 16,7 C 96 % 1012,2 hPa 0,0 l/m 0 min 0 min 38 W/m 6,4 km/h (2 Bft) 93,62 %
27.07.2021 07:38 17,0 C 16,7 C 17,3 C 96 % 1012,2 hPa 0,0 l/m 0 min 0 min 32 W/m 6,4 km/h (2 Bft) 95,65 %
27.07.2021 07:40 17,0 C 16,7 C 17,3 C 96 % 1012,2 hPa 0,0 l/m 0 min 0 min 29 W/m 3,2 km/h (1 Bft) 95,74 %
27.07.2021 07:42 17,0 C 16,7 C 17,3 C 96 % 1012,2 hPa 0,0 l/m 0 min 0 min 32 W/m 6,4 km/h (2 Bft) 95,74 %
27.07.2021 07:44 17,0 C 16,7 C 17,3 C 96 % 1012,2 hPa 0,0 l/m 0 min 0 min 32 W/m 6,4 km/h (2 Bft) 93,62 %
27.07.2021 07:46 17,0 C 16,7 C 16,7 C 96 % 1012,1 hPa 0,0 l/m 0 min 0 min 27 W/m 12,9 km/h (3 Bft) 93,62 %
27.07.2021 07:48 17,1 C 16,7 C 16,7 C 96 % 1012,2 hPa 0,0 l/m 0 min 0 min 27 W/m 6,4 km/h (2 Bft) 95,74 %
27.07.2021 07:50 17,1 C 16,7 C 17,3 C 95 % 1012,1 hPa 0,0 l/m 0 min 0 min 31 W/m 3,2 km/h (1 Bft) 95,65 %
27.07.2021 07:52 17,1 C 16,7 C 17,3 C 95 % 1012,2 hPa 0,0 l/m 0 min 0 min 37 W/m 6,4 km/h (2 Bft) 91,49 %
27.07.2021 07:54 17,1 C 16,7 C 17,3 C 95 % 1012,2 hPa 0,0 l/m 0 min 0 min 48 W/m 3,2 km/h (1 Bft) 95,74 %
27.07.2021 07:56 17,1 C 16,7 C 17,3 C 95 % 1012,2 hPa 0,0 l/m 0 min 0 min 56 W/m 12,9 km/h (3 Bft) 93,62 %
27.07.2021 07:58 17,2 C 17,2 C 17,3 C 95 % 1012,2 hPa 0,0 l/m 0 min 0 min 74 W/m 12,9 km/h (3 Bft) 95,74 %
27.07.2021 08:00 17,2 C 17,2 C 17,3 C 95 % 1012,3 hPa 0,0 l/m 0 min 0 min 74 W/m 6,4 km/h (2 Bft) 95,74 %
27.07.2021 08:02 17,3 C 17,2 C 17,3 C 95 % 1012,2 hPa 0,0 l/m 0 min 0 min 73 W/m 3,2 km/h (1 Bft) 91,30 %
27.07.2021 08:04 17,3 C 17,2 C 17,3 C 95 % 1012,1 hPa 0,0 l/m 0 min 0 min 83 W/m 6,4 km/h (2 Bft) 95,74 %
27.07.2021 08:06 17,3 C 17,2 C 17,3 C 96 % 1012,1 hPa 0,0 l/m 0 min 0 min 78 W/m 12,9 km/h (3 Bft) 95,74 %
27.07.2021 08:08 17,3 C 17,2 C 17,3 C 96 % 1012,1 hPa 0,0 l/m 0 min 0 min 74 W/m 6,4 km/h (2 Bft) 93,62 %
27.07.2021 08:10 17,4 C 17,2 C 17,3 C 95 % 1012,1 hPa 0,0 l/m 0 min 0 min 77 W/m 3,2 km/h (1 Bft) 95,74 %
27.07.2021 08:12 17,4 C 17,2 C 17,3 C 95 % 1012,1 hPa 0,0 l/m 0 min 0 min 81 W/m 6,4 km/h (2 Bft) 100,00 %
27.07.2021 08:14 17,4 C 17,2 C 17,3 C 95 % 1012,1 hPa 0,0 l/m 0 min 0 min 91 W/m 6,4 km/h (2 Bft) 100,00 %
27.07.2021 08:16 17,4 C 17,2 C 17,8 C 95 % 1012,0 hPa 0,0 l/m 0 min 0 min 103 W/m 3,2 km/h (1 Bft) 100,00 %
27.07.2021 08:18 17,5 C 17,8 C 17,8 C 95 % 1012,0 hPa 0,0 l/m 0 min 0 min 114 W/m 6,4 km/h (2 Bft) 100,00 %
27.07.2021 08:20 17,5 C 17,8 C 17,8 C 95 % 1012,0 hPa 0,0 l/m 0 min 0 min 126 W/m 3,2 km/h (1 Bft) 100,00 %
27.07.2021 08:22 17,5 C 17,8 C 17,8 C 95 % 1012,1 hPa 0,0 l/m 0 min 0 min 141 W/m 6,4 km/h (2 Bft) 100,00 %
27.07.2021 08:24 17,6 C 17,8 C 17,8 C 95 % 1012,1 hPa 0,0 l/m 0 min 0 min 152 W/m 12,9 km/h (3 Bft) 97,87 %
27.07.2021 08:26 17,6 C 17,8 C 17,8 C 95 % 1012,1 hPa 0,0 l/m 0 min 0 min 161 W/m 12,9 km/h (3 Bft) 100,00 %
27.07.2021 08:28 17,6 C 17,8 C 17,8 C 95 % 1012,1 hPa 0,0 l/m 0 min 0 min 155 W/m 12,9 km/h (3 Bft) 97,87 %
27.07.2021 08:30 17,7 C 17,8 C 17,8 C 95 % 1012,1 hPa 0,0 l/m 0 min 0 min 151 W/m 6,4 km/h (2 Bft) 97,87 %
27.07.2021 08:32 17,7 C 17,8 C 17,8 C 95 % 1012,1 hPa 0,0 l/m 0 min 0 min 144 W/m 6,4 km/h (2 Bft) 95,74 %
27.07.2021 08:34 17,8 C 18,3 C 17,8 C 95 % 1012,1 hPa 0,0 l/m 0 min 0 min 149 W/m 6,4 km/h (2 Bft) 100,00 %
27.07.2021 08:36 17,8 C 18,3 C 18,4 C 95 % 1012,1 hPa 0,0 l/m 0 min 0 min 175 W/m 3,2 km/h (1 Bft) 100,00 %
27.07.2021 08:38 17,9 C 18,3 C 18,4 C 95 % 1012,1 hPa 0,0 l/m 0 min 0 min 176 W/m 6,4 km/h (2 Bft) 100,00 %
27.07.2021 08:40 17,9 C 18,3 C 18,4 C 95 % 1012,1 hPa 0,0 l/m 0 min 0 min 159 W/m 6,4 km/h (2 Bft) 100,00 %
27.07.2021 08:42 17,9 C 18,3 C 18,4 C 95 % 1012,1 hPa 0,0 l/m 0 min 0 min 151 W/m 6,4 km/h (2 Bft) 95,74 %
27.07.2021 08:44 18,0 C 18,3 C 18,4 C 95 % 1012,1 hPa 0,0 l/m 0 min 0 min 143 W/m 6,4 km/h (2 Bft) 100,00 %
27.07.2021 08:46 18,0 C 18,3 C 18,4 C 95 % 1012,1 hPa 0,0 l/m 0 min 0 min 140 W/m 6,4 km/h (2 Bft) 100,00 %
27.07.2021 08:47 18,1 C 18,3 C 18,4 C 94 % 1012,2 hPa 0,0 l/m 0 min 0 min 120 W/m 6,4 km/h (2 Bft) 100,00 %
27.07.2021 08:50 18,1 C 18,3 C 18,4 C 94 % 1012,2 hPa 0,0 l/m 0 min 0 min 150 W/m 12,9 km/h (3 Bft) 95,74 %
27.07.2021 08:52 18,1 C 18,3 C 18,4 C 94 % 1012,2 hPa 0,0 l/m 0 min 0 min 94 W/m 16,1 km/h (3 Bft) 97,87 %
27.07.2021 08:54 18,1 C 18,3 C 18,4 C 94 % 1012,1 hPa 0,0 l/m 0 min 0 min 59 W/m 6,4 km/h (2 Bft) 97,87 %
27.07.2021 08:56 18,2 C 18,3 C 18,4 C 93 % 1012,1 hPa 0,0 l/m 0 min 0 min 51 W/m 6,4 km/h (2 Bft) 100,00 %
27.07.2021 08:58 18,2 C 18,3 C 18,4 C 93 % 1012,1 hPa 0,0 l/m 0 min 0 min 90 W/m 12,9 km/h (3 Bft) 100,00 %
27.07.2021 09:00 18,3 C 18,3 C 18,4 C 93 % 1012,2 hPa 0,0 l/m 0 min 0 min 132 W/m 12,9 km/h (3 Bft) 98,08 %
27.07.2021 09:02 18,3 C 18,3 C 18,4 C 93 % 1012,1 hPa 0,0 l/m 0 min 0 min 139 W/m 3,2 km/h (1 Bft) 90,24 %
27.07.2021 09:04 18,3 C 18,3 C 18,4 C 93 % 1012,1 hPa 0,0 l/m 0 min 0 min 168 W/m 6,4 km/h (2 Bft) 93,62 %
27.07.2021 09:06 18,4 C 18,9 C 18,4 C 92 % 1012,1 hPa 0,0 l/m 0 min 0 min 198 W/m 6,4 km/h (2 Bft) 91,49 %
27.07.2021 09:08 18,4 C 18,9 C 18,4 C 92 % 1012,1 hPa 0,0 l/m 0 min 0 min 226 W/m 6,4 km/h (2 Bft) 94,44 %
27.07.2021 09:10 18,4 C 18,9 C 18,9 C 92 % 1012,2 hPa 0,0 l/m 2 min 0 min 243 W/m 12,9 km/h (3 Bft) 97,87 %
27.07.2021 09:12 18,5 C 19,4 C 18,9 C 92 % 1012,2 hPa 0,0 l/m 2 min 0 min 239 W/m 9,7 km/h (2 Bft) 97,83 %
27.07.2021 09:14 18,6 C 19,4 C 18,9 C 92 % 1012,2 hPa 0,0 l/m 2 min 0 min 249 W/m 6,4 km/h (2 Bft) 97,87 %
27.07.2021 09:16 18,6 C 20,0 C 18,9 C 92 % 1012,2 hPa 0,0 l/m 2 min 0 min 247 W/m 6,4 km/h (2 Bft) 97,87 %
27.07.2021 09:18 18,8 C 19,4 C 19,5 C 91 % 1012,2 hPa 0,0 l/m 2 min 0 min 250 W/m 16,1 km/h (3 Bft) 100,00 %
27.07.2021 09:20 18,8 C 19,4 C 19,5 C 91 % 1012,3 hPa 0,0 l/m 2 min 0 min 276 W/m 12,9 km/h (3 Bft) 97,87 %
27.07.2021 09:22 18,9 C 19,4 C 19,5 C 91 % 1012,2 hPa 0,0 l/m 2 min 0 min 270 W/m 12,9 km/h (3 Bft) 97,83 %
27.07.2021 09:24 18,9 C 20,0 C 19,5 C 90 % 1012,2 hPa 0,0 l/m 2 min 0 min 253 W/m 6,4 km/h (2 Bft) 97,87 %
27.07.2021 09:26 19,0 C 19,4 C 19,5 C 90 % 1012,3 hPa 0,0 l/m 2 min 0 min 261 W/m 12,9 km/h (3 Bft) 97,87 %
27.07.2021 09:28 19,1 C 20,0 C 19,5 C 90 % 1012,3 hPa 0,0 l/m 2 min 0 min 282 W/m 12,9 km/h (3 Bft) 97,87 %
27.07.2021 09:30 19,1 C 20,0 C 19,5 C 90 % 1012,3 hPa 0,0 l/m 0 min 0 min 253 W/m 12,9 km/h (3 Bft) 97,87 %
27.07.2021 09:32 19,3 C 20,0 C 19,5 C 90 % 1012,2 hPa 0,0 l/m 0 min 0 min 230 W/m 9,7 km/h (2 Bft) 97,87 %
27.07.2021 09:34 19,3 C 20,0 C 19,5 C 89 % 1012,3 hPa 0,0 l/m 0 min 0 min 215 W/m 12,9 km/h (3 Bft) 97,87 %
27.07.2021 09:36 19,4 C 20,0 C 19,5 C 89 % 1012,3 hPa 0,0 l/m 0 min 0 min 208 W/m 6,4 km/h (2 Bft) 97,83 %
27.07.2021 09:38 19,5 C 20,0 C 19,5 C 88 % 1012,3 hPa 0,0 l/m 0 min 0 min 207 W/m 6,4 km/h (2 Bft) 97,87 %
27.07.2021 09:40 19,5 C 20,0 C 19,5 C 88 % 1012,3 hPa 0,0 l/m 0 min 0 min 209 W/m 6,4 km/h (2 Bft) 97,87 %
27.07.2021 09:42 19,5 C 20,0 C 19,5 C 88 % 1012,3 hPa 0,0 l/m 0 min 0 min 217 W/m 9,7 km/h (2 Bft) 97,87 %
27.07.2021 09:44 19,6 C 20,0 C 19,5 C 88 % 1012,4 hPa 0,0 l/m 0 min 0 min 212 W/m 6,4 km/h (2 Bft) 97,87 %
27.07.2021 09:46 19,6 C 20,0 C 19,5 C 87 % 1012,4 hPa 0,0 l/m 0 min 0 min 201 W/m 25,7 km/h (4 Bft) 97,83 %
27.07.2021 09:48 19,6 C 20,0 C 19,5 C 86 % 1012,3 hPa 0,0 l/m 0 min 0 min 200 W/m 9,7 km/h (2 Bft) 97,87 %
27.07.2021 09:50 19,6 C 20,0 C 19,5 C 86 % 1012,4 hPa 0,0 l/m 0 min 0 min 197 W/m 12,9 km/h (3 Bft) 93,62 %
27.07.2021 09:52 19,7 C 20,0 C 19,5 C 85 % 1012,4 hPa 0,0 l/m 0 min 0 min 205 W/m 12,9 km/h (3 Bft) 95,74 %
27.07.2021 09:54 19,8 C 20,0 C 19,5 C 85 % 1012,3 hPa 0,0 l/m 0 min 0 min 199 W/m 12,9 km/h (3 Bft) 97,87 %
27.07.2021 09:56 19,8 C 20,0 C 19,5 C 85 % 1012,4 hPa 0,0 l/m 0 min 0 min 228 W/m 12,9 km/h (3 Bft) 97,87 %
27.07.2021 09:58 19,8 C 20,6 C 20,0 C 85 % 1012,3 hPa 0,0 l/m 2 min 0 min 343 W/m 12,9 km/h (3 Bft) 95,65 %
27.07.2021 10:00 19,9 C 21,1 C 20,0 C 85 % 1012,2 hPa 0,0 l/m 2 min 0 min 376 W/m 6,4 km/h (2 Bft) 97,87 %
27.07.2021 10:02 19,9 C 21,7 C 20,6 C 85 % 1012,2 hPa 0,0 l/m 2 min 0 min 419 W/m 12,9 km/h (3 Bft) 95,74 %
27.07.2021 10:04 20,0 C 22,2 C 20,6 C 85 % 1012,2 hPa 0,0 l/m 2 min 0 min 469 W/m 12,9 km/h (3 Bft) 95,74 %
27.07.2021 10:06 20,2 C 23,3 C 21,1 C 85 % 1012,2 hPa 0,0 l/m 2 min 0 min 526 W/m 9,7 km/h (2 Bft) 95,74 %
27.07.2021 10:08 20,4 C 23,9 C 21,1 C 84 % 1012,1 hPa 0,0 l/m 2 min 0 min 569 W/m 9,7 km/h (2 Bft) 93,75 %
27.07.2021 10:10 20,5 C 23,9 C 21,1 C 84 % 1012,1 hPa 0,0 l/m 2 min 0 min 486 W/m 9,7 km/h (2 Bft) 93,48 %
27.07.2021 10:12 20,6 C 23,3 C 21,1 C 84 % 1012,1 hPa 0,0 l/m 2 min 0 min 410 W/m 6,4 km/h (2 Bft) 95,74 %
27.07.2021 10:14 20,7 C 23,3 C 21,7 C 83 % 1012,1 hPa 0,2 l/m 2 min 0 min 386 W/m 6,4 km/h (2 Bft) 95,74 %
27.07.2021 10:16 20,8 C 23,3 C 21,7 C 83 % 1012,1 hPa 0,0 l/m 2 min 0 min 368 W/m 16,1 km/h (3 Bft) 93,62 %
27.07.2021 10:18 20,9 C 22,8 C 21,1 C 81 % 1012,0 hPa 0,0 l/m 2 min 0 min 393 W/m 16,1 km/h (3 Bft) 93,62 %
27.07.2021 10:20 20,9 C 22,8 C 21,7 C 82 % 1012,1 hPa 0,0 l/m 2 min 0 min 490 W/m 12,9 km/h (3 Bft) 93,62 %
27.07.2021 10:22 21,0 C 23,3 C 21,7 C 82 % 1012,1 hPa 0,0 l/m 2 min 0 min 546 W/m 16,1 km/h (3 Bft) 95,65 %
27.07.2021 10:24 21,1 C 23,3 C 21,7 C 82 % 1012,1 hPa 0,0 l/m 2 min 0 min 476 W/m 6,4 km/h (2 Bft) 93,62 %
27.07.2021 10:26 21,2 C 23,3 C 21,7 C 81 % 1012,1 hPa 0,0 l/m 2 min 0 min 502 W/m 9,7 km/h (2 Bft) 93,62 %
27.07.2021 10:28 21,3 C 23,9 C 21,7 C 81 % 1012,0 hPa 0,0 l/m 2 min 0 min 363 W/m 9,7 km/h (2 Bft) 91,49 %
27.07.2021 10:30 21,4 C 23,3 C 21,7 C 81 % 1012,1 hPa 0,0 l/m 0 min 0 min 272 W/m 12,9 km/h (3 Bft) 97,87 %
27.07.2021 10:32 21,4 C 22,8 C 21,7 C 81 % 1012,1 hPa 0,0 l/m 0 min 0 min 252 W/m 12,9 km/h (3 Bft) 97,87 %
27.07.2021 10:34 21,4 C 22,2 C 21,1 C 81 % 1012,0 hPa 0,0 l/m 0 min 0 min 248 W/m 9,7 km/h (2 Bft) 95,65 %
27.07.2021 10:36 21,4 C 22,2 C 21,1 C 80 % 1012,0 hPa 0,0 l/m 2 min 0 min 332 W/m 29,0 km/h (5 Bft) 95,74 %
27.07.2021 10:38 21,4 C 22,2 C 21,7 C 80 % 1012,0 hPa 0,0 l/m 2 min 0 min 363 W/m 9,7 km/h (2 Bft) 95,83 %
27.07.2021 10:40 21,5 C 22,2 C 21,7 C 80 % 1012,0 hPa 0,0 l/m 2 min 0 min 462 W/m 12,9 km/h (3 Bft) 95,74 %
27.07.2021 10:42 21,5 C 22,2 C 22,3 C 80 % 1012,0 hPa 0,0 l/m 2 min 0 min 521 W/m 12,9 km/h (3 Bft) 93,62 %
27.07.2021 10:44 21,5 C 22,2 C 22,3 C 80 % 1011,9 hPa 0,0 l/m 2 min 0 min 473 W/m 19,3 km/h (3 Bft) 97,83 %
27.07.2021 10:46 21,6 C 22,2 C 22,3 C 80 % 1011,8 hPa 0,0 l/m 0 min 0 min 326 W/m 16,1 km/h (3 Bft) 97,87 %
27.07.2021 10:48 21,6 C 22,2 C 21,7 C 79 % 1011,9 hPa 0,0 l/m 0 min 0 min 270 W/m 25,7 km/h (4 Bft) 95,74 %
27.07.2021 10:50 21,6 C 22,2 C 21,7 C 79 % 1011,9 hPa 0,0 l/m 2 min 0 min 358 W/m 12,9 km/h (3 Bft) 95,74 %
27.07.2021 10:52 21,7 C 22,8 C 22,3 C 79 % 1011,9 hPa 0,0 l/m 2 min 0 min 450 W/m 22,5 km/h (4 Bft) 97,87 %
27.07.2021 10:54 21,8 C 22,8 C 22,3 C 80 % 1011,9 hPa 0,0 l/m 2 min 0 min 719 W/m 16,1 km/h (3 Bft) 97,87 %
27.07.2021 10:56 21,9 C 22,8 C 22,3 C 79 % 1011,9 hPa 0,0 l/m 2 min 0 min 693 W/m 16,1 km/h (3 Bft) 97,87 %
27.07.2021 10:58 22,0 C 22,8 C 22,3 C 79 % 1011,8 hPa 0,0 l/m 2 min 0 min 675 W/m 16,1 km/h (3 Bft) 97,83 %
27.07.2021 11:00 22,1 C 23,3 C 22,8 C 79 % 1011,7 hPa 0,0 l/m 2 min 0 min 665 W/m 16,1 km/h (3 Bft) 95,74 %
27.07.2021 11:02 22,3 C 23,3 C 23,4 C 79 % 1011,8 hPa 0,0 l/m 2 min 0 min 645 W/m 12,9 km/h (3 Bft) 97,87 %
27.07.2021 11:04 22,4 C 23,9 C 23,9 C 79 % 1011,8 hPa 0,0 l/m 2 min 0 min 679 W/m 12,9 km/h (3 Bft) 97,87 %
27.07.2021 11:06 22,5 C 23,9 C 24,5 C 77 % 1011,7 hPa 0,0 l/m 2 min 0 min 712 W/m 12,9 km/h (3 Bft) 97,87 %
27.07.2021 11:08 22,6 C 24,4 C 24,5 C 77 % 1011,8 hPa 0,0 l/m 2 min 0 min 705 W/m 12,9 km/h (3 Bft) 97,87 %
27.07.2021 11:10 22,8 C 24,4 C 24,5 C 77 % 1011,8 hPa 0,0 l/m 2 min 0 min 729 W/m 19,3 km/h (3 Bft) 97,83 %
27.07.2021 11:12 22,9 C 24,4 C 23,9 C 76 % 1011,8 hPa 0,0 l/m 2 min 0 min 732 W/m 16,1 km/h (3 Bft) 97,87 %
27.07.2021 11:14 22,9 C 25,0 C 23,9 C 75 % 1011,8 hPa 0,0 l/m 2 min 0 min 792 W/m 6,4 km/h (2 Bft) 97,87 %
27.07.2021 11:16 23,0 C 25,6 C 23,9 C 76 % 1011,8 hPa 0,0 l/m 2 min 0 min 819 W/m 16,1 km/h (3 Bft) 97,87 %
27.07.2021 11:18 23,2 C 25,6 C 23,9 C 75 % 1011,9 hPa 0,0 l/m 2 min 0 min 862 W/m 9,7 km/h (2 Bft) 95,74 %
27.07.2021 11:20 23,3 C 25,0 C 23,4 C 74 % 1011,8 hPa 0,0 l/m 2 min 0 min 872 W/m 19,3 km/h (3 Bft) 97,87 %
27.07.2021 11:22 23,4 C 24,4 C 23,4 C 74 % 1011,9 hPa 0,0 l/m 0 min 0 min 248 W/m 19,3 km/h (3 Bft) 97,83 %
27.07.2021 11:24 23,5 C 24,4 C 22,8 C 73 % 1011,8 hPa 0,0 l/m 0 min 0 min 262 W/m 12,9 km/h (3 Bft) 97,87 %
27.07.2021 11:26 23,5 C 23,9 C 22,8 C 74 % 1011,8 hPa 0,0 l/m 0 min 0 min 323 W/m 16,1 km/h (3 Bft) 97,87 %
27.07.2021 11:28 23,4 C 24,4 C 22,8 C 74 % 1011,7 hPa 0,0 l/m 2 min 0 min 397 W/m 12,9 km/h (3 Bft) 97,87 %
27.07.2021 11:30 23,5 C 25,0 C 23,4 C 74 % 1011,7 hPa 0,0 l/m 2 min 0 min 443 W/m 9,7 km/h (2 Bft) 97,87 %
27.07.2021 11:32 23,6 C 25,0 C 22,8 C 74 % 1011,7 hPa 0,0 l/m 0 min 0 min 364 W/m 16,1 km/h (3 Bft) 97,87 %
27.07.2021 11:34 23,6 C 24,4 C 22,8 C 74 % 1011,7 hPa 0,0 l/m 0 min 0 min 248 W/m 19,3 km/h (3 Bft) 97,83 %
27.07.2021 11:36 23,5 C 23,9 C 22,3 C 73 % 1011,7 hPa 0,0 l/m 0 min 0 min 273 W/m 16,1 km/h (3 Bft) 97,87 %
27.07.2021 11:38 23,5 C 23,9 C 22,3 C 74 % 1011,7 hPa 0,0 l/m 0 min 0 min 326 W/m 12,9 km/h (3 Bft) 100,00 %
27.07.2021 11:40 23,5 C 23,9 C 22,8 C 73 % 1011,8 hPa 0,0 l/m 2 min 0 min 483 W/m 32,2 km/h (5 Bft) 100,00 %
27.07.2021 11:42 23,5 C 24,4 C 22,8 C 73 % 1011,7 hPa 0,0 l/m 2 min 0 min 546 W/m 19,3 km/h (3 Bft) 100,00 %
27.07.2021 11:44 23,5 C 24,4 C 22,8 C 73 % 1011,6 hPa 0,0 l/m 2 min 0 min 533 W/m 22,5 km/h (4 Bft) 100,00 %
27.07.2021 11:46 23,5 C 24,4 C 23,4 C 73 % 1011,6 hPa 0,0 l/m 2 min 0 min 512 W/m 25,7 km/h (4 Bft) 100,00 %
27.07.2021 11:48 23,5 C 24,4 C 22,8 C 73 % 1011,6 hPa 0,0 l/m 2 min 0 min 424 W/m 19,3 km/h (3 Bft) 100,00 %
27.07.2021 11:50 23,5 C 24,4 C 23,4 C 73 % 1011,7 hPa 0,0 l/m 2 min 0 min 422 W/m 19,3 km/h (3 Bft) 100,00 %
27.07.2021 11:52 23,5 C 24,4 C 23,4 C 72 % 1011,7 hPa 0,0 l/m 2 min 0 min 475 W/m 12,9 km/h (3 Bft) 100,00 %
27.07.2021 11:54 23,6 C 24,4 C 23,4 C 72 % 1011,7 hPa 0,0 l/m 2 min 0 min 428 W/m 12,9 km/h (3 Bft) 100,00 %
27.07.2021 11:56 23,6 C 23,9 C 22,8 C 72 % 1011,7 hPa 0,0 l/m 0 min 0 min 326 W/m 25,7 km/h (4 Bft) 100,00 %
27.07.2021 11:58 23,6 C 23,9 C 22,8 C 73 % 1011,8 hPa 0,0 l/m 0 min 0 min 298 W/m 12,9 km/h (3 Bft) 100,00 %
27.07.2021 12:00 23,6 C 23,9 C 22,3 C 73 % 1011,7 hPa 0,0 l/m 0 min 0 min 241 W/m 19,3 km/h (3 Bft) 100,00 %
27.07.2021 12:02 23,6 C 23,3 C 22,3 C 73 % 1011,8 hPa 0,0 l/m 0 min 0 min 191 W/m 12,9 km/h (3 Bft) 100,00 %
27.07.2021 12:04 23,5 C 23,3 C 21,7 C 72 % 1011,8 hPa 0,0 l/m 0 min 0 min 187 W/m 16,1 km/h (3 Bft) 97,87 %
27.07.2021 12:08 23,5 C 23,9 C 22,8 C 73 % 1011,7 hPa 0,0 l/m 0 min 0 min 299 W/m 12,9 km/h (3 Bft) 95,79 %
27.07.2021 12:10 23,5 C 24,4 C 23,4 C 74 % 1011,7 hPa 0,0 l/m 2 min 0 min 653 W/m 6,4 km/h (2 Bft) 91,30 %
27.07.2021 12:12 23,6 C 25,0 C 23,9 C 73 % 1011,7 hPa 0,0 l/m 2 min 0 min 612 W/m 9,7 km/h (2 Bft) 95,74 %
27.07.2021 12:14 23,7 C 25,0 C 23,9 C 73 % 1011,8 hPa 0,0 l/m 2 min 0 min 568 W/m 25,7 km/h (4 Bft) 95,74 %
27.07.2021 12:16 23,7 C 24,4 C 23,4 C 72 % 1011,8 hPa 0,0 l/m 2 min 0 min 502 W/m 25,7 km/h (4 Bft) 100,00 %
27.07.2021 12:18 23,8 C 24,4 C 23,9 C 72 % 1011,7 hPa 0,0 l/m 2 min 0 min 475 W/m 22,5 km/h (4 Bft) 100,00 %
27.07.2021 12:20 23,8 C 24,4 C 23,9 C 71 % 1011,8 hPa 0,0 l/m 2 min 0 min 520 W/m 16,1 km/h (3 Bft) 100,00 %
27.07.2021 12:22 23,9 C 25,0 C 23,9 C 71 % 1011,8 hPa 0,0 l/m 2 min 0 min 447 W/m 16,1 km/h (3 Bft) 100,00 %
27.07.2021 12:24 23,9 C 24,4 C 23,9 C 71 % 1011,8 hPa 0,0 l/m 2 min 0 min 425 W/m 12,9 km/h (3 Bft) 100,00 %
27.07.2021 12:26 24,0 C 24,4 C 23,9 C 71 % 1011,7 hPa 0,0 l/m 0 min 0 min 349 W/m 16,1 km/h (3 Bft) 95,74 %
27.07.2021 12:28 24,0 C 24,4 C 23,4 C 71 % 1011,8 hPa 0,0 l/m 0 min 0 min 215 W/m 12,9 km/h (3 Bft) 100,00 %
27.07.2021 12:30 24,0 C 23,9 C 22,8 C 72 % 1011,8 hPa 0,0 l/m 0 min 0 min 154 W/m 19,3 km/h (3 Bft) 100,00 %
27.07.2021 12:32 23,9 C 23,9 C 21,7 C 73 % 1011,9 hPa 0,0 l/m 0 min 2 min 149 W/m 22,5 km/h (4 Bft) 100,00 %
27.07.2021 12:34 23,6 C 22,8 C 20,6 C 73 % 1011,9 hPa 0,0 l/m 0 min 2 min 198 W/m 19,3 km/h (3 Bft) 97,87 %
27.07.2021 12:36 23,4 C 22,8 C 20,6 C 74 % 1011,9 hPa 0,0 l/m 0 min 2 min 266 W/m 16,1 km/h (3 Bft) 97,87 %
27.07.2021 12:38 23,3 C 22,8 C 20,6 C 76 % 1011,9 hPa 0,0 l/m 0 min 2 min 319 W/m 12,9 km/h (3 Bft) 97,87 %
27.07.2021 12:40 23,1 C 22,8 C 20,6 C 76 % 1011,9 hPa 0,0 l/m 0 min 0 min 388 W/m 12,9 km/h (3 Bft) 97,87 %
27.07.2021 12:42 23,0 C 22,8 C 21,1 C 76 % 1011,9 hPa 0,0 l/m 2 min 0 min 405 W/m 19,3 km/h (3 Bft) 95,74 %
27.07.2021 12:44 23,0 C 23,3 C 21,1 C 76 % 1011,9 hPa 0,0 l/m 0 min 0 min 389 W/m 19,3 km/h (3 Bft) 95,65 %
27.07.2021 12:46 23,0 C 23,3 C 21,1 C 75 % 1011,9 hPa 0,0 l/m 0 min 0 min 364 W/m 16,1 km/h (3 Bft) 97,87 %
27.07.2021 12:48 23,0 C 23,3 C 21,1 C 75 % 1012,0 hPa 0,0 l/m 0 min 0 min 332 W/m 12,9 km/h (3 Bft) 97,87 %
27.07.2021 12:50 23,0 C 23,3 C 21,1 C 75 % 1012,0 hPa 0,0 l/m 0 min 0 min 314 W/m 16,1 km/h (3 Bft) 97,87 %
27.07.2021 12:52 23,0 C 23,3 C 21,1 C 75 % 1012,0 hPa 0,0 l/m 0 min 0 min 307 W/m 16,1 km/h (3 Bft) 98,04 %
27.07.2021 12:54 23,0 C 23,3 C 21,1 C 76 % 1011,9 hPa 0,0 l/m 0 min 0 min 321 W/m 16,1 km/h (3 Bft) 97,87 %
27.07.2021 12:56 23,0 C 23,3 C 21,1 C 75 % 1012,0 hPa 0,0 l/m 0 min 0 min 356 W/m 16,1 km/h (3 Bft) 97,83 %
27.07.2021 12:58 23,0 C 23,3 C 21,1 C 76 % 1012,1 hPa 0,0 l/m 0 min 0 min 366 W/m 9,7 km/h (2 Bft) 97,87 %
27.07.2021 13:00 23,0 C 23,3 C 21,1 C 75 % 1012,0 hPa 0,0 l/m 0 min 0 min 376 W/m 6,4 km/h (2 Bft) 95,74 %
27.07.2021 13:02 23,0 C 23,3 C 21,7 C 75 % 1012,1 hPa 0,0 l/m 2 min 0 min 423 W/m 12,9 km/h (3 Bft) 97,87 %
27.07.2021 13:04 23,1 C 23,9 C 21,7 C 75 % 1012,1 hPa 0,0 l/m 2 min 0 min 520 W/m 16,1 km/h (3 Bft) 97,87 %
27.07.2021 13:06 23,1 C 23,9 C 22,3 C 74 % 1012,1 hPa 0,0 l/m 2 min 0 min 573 W/m 16,1 km/h (3 Bft) 97,87 %
27.07.2021 13:08 23,3 C 24,4 C 22,8 C 75 % 1012,1 hPa 0,0 l/m 2 min 0 min 691 W/m 16,1 km/h (3 Bft) 97,83 %
27.07.2021 13:10 23,4 C 24,4 C 22,8 C 74 % 1012,1 hPa 0,0 l/m 2 min 0 min 844 W/m 12,9 km/h (3 Bft) 97,87 %
27.07.2021 13:12 23,5 C 25,0 C 22,8 C 74 % 1012,1 hPa 0,0 l/m 2 min 0 min 789 W/m 19,3 km/h (3 Bft) 97,87 %
27.07.2021 13:14 23,6 C 25,0 C 22,8 C 73 % 1012,0 hPa 0,0 l/m 2 min 0 min 690 W/m 22,5 km/h (4 Bft) 97,87 %
27.07.2021 13:16 23,7 C 25,0 C 22,8 C 73 % 1012,1 hPa 0,0 l/m 2 min 0 min 781 W/m 29,0 km/h (5 Bft) 100,00 %
27.07.2021 13:18 23,7 C 25,0 C 22,8 C 72 % 1012,0 hPa 0,0 l/m 2 min 0 min 789 W/m 29,0 km/h (5 Bft) 100,00 %
27.07.2021 13:20 23,8 C 25,0 C 22,8 C 73 % 1012,0 hPa 0,0 l/m 2 min 0 min 728 W/m 19,3 km/h (3 Bft) 97,83 %
27.07.2021 13:22 23,9 C 25,0 C 22,8 C 72 % 1012,0 hPa 0,0 l/m 2 min 0 min 728 W/m 38,6 km/h (5 Bft) 97,87 %
27.07.2021 13:24 23,9 C 25,0 C 22,8 C 72 % 1011,9 hPa 0,0 l/m 2 min 0 min 742 W/m 22,5 km/h (4 Bft) 97,87 %
27.07.2021 13:26 24,0 C 25,6 C 22,8 C 72 % 1011,8 hPa 0,0 l/m 2 min 0 min 754 W/m 19,3 km/h (3 Bft) 97,87 %
27.07.2021 13:28 24,1 C 25,6 C 23,4 C 72 % 1011,8 hPa 0,0 l/m 2 min 0 min 727 W/m 9,7 km/h (2 Bft) 97,87 %
27.07.2021 13:30 24,2 C 25,6 C 23,4 C 72 % 1011,8 hPa 0,0 l/m 2 min 0 min 709 W/m 12,9 km/h (3 Bft) 97,87 %
27.07.2021 13:32 24,3 C 25,6 C 23,4 C 71 % 1011,7 hPa 0,0 l/m 2 min 0 min 686 W/m 16,1 km/h (3 Bft) 95,65 %
27.07.2021 13:34 24,4 C 25,6 C 23,4 C 71 % 1011,8 hPa 0,0 l/m 2 min 0 min 702 W/m 12,9 km/h (3 Bft) 97,87 %
27.07.2021 13:36 24,4 C 26,1 C 23,9 C 71 % 1011,7 hPa 0,0 l/m 2 min 0 min 748 W/m 9,7 km/h (2 Bft) 95,74 %
27.07.2021 13:38 24,5 C 26,1 C 23,9 C 72 % 1011,8 hPa 0,0 l/m 2 min 0 min 748 W/m 12,9 km/h (3 Bft) 97,87 %
27.07.2021 13:40 24,7 C 26,1 C 24,5 C 72 % 1011,8 hPa 0,0 l/m 2 min 0 min 782 W/m 12,9 km/h (3 Bft) 95,74 %
27.07.2021 13:42 24,8 C 26,7 C 25,0 C 71 % 1011,7 hPa 0,0 l/m 2 min 0 min 829 W/m 12,9 km/h (3 Bft) 95,65 %
27.07.2021 13:44 24,9 C 26,1 C 24,5 C 70 % 1011,7 hPa 0,0 l/m 2 min 0 min 730 W/m 16,1 km/h (3 Bft) 97,87 %
27.07.2021 13:46 24,9 C 26,1 C 25,0 C 70 % 1011,7 hPa 0,0 l/m 2 min 0 min 624 W/m 16,1 km/h (3 Bft) 97,87 %
27.07.2021 13:48 24,8 C 26,1 C 25,6 C 70 % 1011,7 hPa 0,0 l/m 2 min 0 min 856 W/m 16,1 km/h (3 Bft) 97,87 %
27.07.2021 13:50 24,9 C 26,1 C 25,0 C 70 % 1011,7 hPa 0,0 l/m 2 min 0 min 909 W/m 16,1 km/h (3 Bft) 97,87 %
27.07.2021 13:52 24,8 C 25,6 C 24,5 C 69 % 1011,6 hPa 0,0 l/m 2 min 0 min 687 W/m 25,7 km/h (4 Bft) 93,62 %
27.07.2021 13:54 24,6 C 25,6 C 24,5 C 68 % 1011,6 hPa 0,0 l/m 2 min 0 min 445 W/m 19,3 km/h (3 Bft) 97,83 %
27.07.2021 13:56 24,6 C 25,6 C 25,0 C 69 % 1011,6 hPa 0,0 l/m 2 min 0 min 668 W/m 12,9 km/h (3 Bft) 95,74 %
27.07.2021 13:58 24,5 C 25,6 C 23,9 C 68 % 1011,6 hPa 0,0 l/m 2 min 0 min 632 W/m 16,1 km/h (3 Bft) 97,87 %
27.07.2021 14:00 24,5 C 25,6 C 23,9 C 69 % 1011,6 hPa 0,0 l/m 2 min 0 min 662 W/m 19,3 km/h (3 Bft) 95,74 %
27.07.2021 14:02 24,5 C 26,1 C 23,9 C 68 % 1011,6 hPa 0,0 l/m 2 min 0 min 763 W/m 16,1 km/h (3 Bft) 93,62 %
27.07.2021 14:04 24,5 C 26,1 C 23,9 C 68 % 1011,7 hPa 0,0 l/m 2 min 0 min 909 W/m 19,3 km/h (3 Bft) 97,22 %
27.07.2021 14:06 24,7 C 26,7 C 23,9 C 68 % 1011,6 hPa 0,0 l/m 2 min 0 min 944 W/m 12,9 km/h (3 Bft) 97,87 %
27.07.2021 14:08 24,8 C 27,2 C 23,9 C 69 % 1011,6 hPa 0,0 l/m 2 min 0 min 933 W/m 12,9 km/h (3 Bft) 93,62 %
27.07.2021 14:10 25,0 C 27,2 C 23,9 C 67 % 1011,6 hPa 0,0 l/m 2 min 0 min 909 W/m 16,1 km/h (3 Bft) 95,65 %
27.07.2021 14:12 25,1 C 27,8 C 23,9 C 66 % 1011,6 hPa 0,0 l/m 2 min 0 min 880 W/m 19,3 km/h (3 Bft) 93,62 %
27.07.2021 14:14 25,1 C 27,2 C 23,4 C 66 % 1011,6 hPa 0,0 l/m 2 min 0 min 879 W/m 16,1 km/h (3 Bft) 95,74 %
27.07.2021 14:16 25,3 C 27,8 C 23,4 C 65 % 1011,6 hPa 0,0 l/m 2 min 0 min 874 W/m 12,9 km/h (3 Bft) 95,74 %
27.07.2021 14:18 25,3 C 27,2 C 23,4 C 64 % 1011,6 hPa 0,0 l/m 2 min 0 min 846 W/m 16,1 km/h (3 Bft) 95,74 %
27.07.2021 14:20 25,3 C 27,2 C 22,8 C 64 % 1011,6 hPa 0,0 l/m 2 min 0 min 950 W/m 16,1 km/h (3 Bft) 93,62 %
27.07.2021 14:22 25,4 C 27,2 C 22,8 C 65 % 1011,6 hPa 0,0 l/m 2 min 0 min 965 W/m 12,9 km/h (3 Bft) 95,65 %
27.07.2021 14:24 25,4 C 26,1 C 22,8 C 64 % 1011,6 hPa 0,0 l/m 2 min 0 min 870 W/m 19,3 km/h (3 Bft) 97,87 %
27.07.2021 14:26 25,3 C 26,7 C 22,8 C 64 % 1011,5 hPa 0,0 l/m 2 min 0 min 860 W/m 12,9 km/h (3 Bft) 95,74 %
27.07.2021 14:28 25,3 C 27,2 C 22,8 C 65 % 1011,4 hPa 0,0 l/m 2 min 0 min 888 W/m 12,9 km/h (3 Bft) 97,87 %
27.07.2021 14:30 25,3 C 26,7 C 22,8 C 65 % 1011,5 hPa 0,0 l/m 2 min 0 min 824 W/m 16,1 km/h (3 Bft) 97,87 %
27.07.2021 14:32 25,3 C 26,1 C 22,8 C 65 % 1011,5 hPa 0,0 l/m 0 min 0 min 364 W/m 16,1 km/h (3 Bft) 97,87 %
27.07.2021 14:34 25,1 C 26,1 C 22,8 C 65 % 1011,4 hPa 0,0 l/m 2 min 0 min 762 W/m 12,9 km/h (3 Bft) 97,83 %
27.07.2021 14:36 25,0 C 25,6 C 22,3 C 65 % 1011,4 hPa 0,0 l/m 2 min 0 min 596 W/m 16,1 km/h (3 Bft) 95,74 %
27.07.2021 14:38 24,9 C 25,6 C 22,3 C 66 % 1011,4 hPa 0,0 l/m 0 min 0 min 284 W/m 12,9 km/h (3 Bft) 95,74 %
27.07.2021 14:40 24,9 C 26,7 C 22,8 C 66 % 1011,3 hPa 0,0 l/m 2 min 0 min 950 W/m 12,9 km/h (3 Bft) 95,74 %
27.07.2021 14:42 25,0 C 27,2 C 22,8 C 68 % 1011,3 hPa 0,0 l/m 2 min 0 min 902 W/m 16,1 km/h (3 Bft) 95,74 %
27.07.2021 14:44 25,1 C 27,8 C 22,8 C 66 % 1011,3 hPa 0,0 l/m 2 min 0 min 919 W/m 12,9 km/h (3 Bft) 97,87 %
27.07.2021 14:46 25,3 C 28,3 C 22,8 C 67 % 1011,3 hPa 0,0 l/m 2 min 0 min 922 W/m 12,9 km/h (3 Bft) 97,83 %
27.07.2021 14:48 25,4 C 27,8 C 22,8 C 66 % 1011,3 hPa 0,0 l/m 2 min 0 min 928 W/m 16,1 km/h (3 Bft) 97,87 %
27.07.2021 14:50 25,4 C 27,2 C 22,8 C 64 % 1011,3 hPa 0,0 l/m 2 min 0 min 919 W/m 12,9 km/h (3 Bft) 97,87 %
27.07.2021 14:52 25,5 C 27,2 C 22,8 C 65 % 1011,2 hPa 0,0 l/m 2 min 0 min 466 W/m 12,9 km/h (3 Bft) 97,87 %
27.07.2021 14:54 25,5 C 27,8 C 22,8 C 65 % 1011,2 hPa 0,0 l/m 2 min 0 min 871 W/m 12,9 km/h (3 Bft) 100,00 %
27.07.2021 14:56 25,6 C 27,2 C 22,8 C 65 % 1011,2 hPa 0,0 l/m 2 min 0 min 737 W/m 16,1 km/h (3 Bft) 100,00 %
27.07.2021 14:58 25,5 C 27,2 C 23,4 C 64 % 1011,2 hPa 0,0 l/m 2 min 0 min 465 W/m 19,3 km/h (3 Bft) 97,83 %
27.07.2021 15:00 25,5 C 26,7 C 23,4 C 64 % 1011,2 hPa 0,0 l/m 2 min 0 min 522 W/m 19,3 km/h (3 Bft) 100,00 %
27.07.2021 15:02 25,5 C 26,7 C 23,4 C 64 % 1011,1 hPa 0,0 l/m 2 min 0 min 397 W/m 12,9 km/h (3 Bft) 100,00 %
27.07.2021 15:04 25,6 C 26,7 C 23,4 C 64 % 1011,1 hPa 0,0 l/m 2 min 0 min 483 W/m 6,4 km/h (2 Bft) 100,00 %
27.07.2021 15:06 25,6 C 27,2 C 23,4 C 65 % 1011,1 hPa 0,0 l/m 2 min 0 min 644 W/m 6,4 km/h (2 Bft) 100,00 %
27.07.2021 15:08 25,8 C 27,8 C 23,4 C 65 % 1011,1 hPa 0,0 l/m 2 min 0 min 809 W/m 6,4 km/h (2 Bft) 97,83 %
27.07.2021 15:10 25,9 C 27,8 C 23,4 C 65 % 1011,1 hPa 0,0 l/m 2 min 0 min 737 W/m 9,7 km/h (2 Bft) 97,87 %
27.07.2021 15:12 25,9 C 27,2 C 23,4 C 64 % 1011,1 hPa 0,0 l/m 2 min 0 min 649 W/m 16,1 km/h (3 Bft) 97,87 %
27.07.2021 15:14 25,8 C 27,2 C 22,8 C 63 % 1011,1 hPa 0,0 l/m 2 min 0 min 694 W/m 12,9 km/h (3 Bft) 97,87 %
27.07.2021 15:16 25,8 C 27,2 C 22,8 C 63 % 1011,1 hPa 0,0 l/m 2 min 0 min 804 W/m 6,4 km/h (2 Bft) 95,74 %
27.07.2021 15:18 25,6 C 26,7 C 22,8 C 63 % 1011,1 hPa 0,0 l/m 2 min 0 min 412 W/m 12,9 km/h (3 Bft) 97,87 %
27.07.2021 15:20 25,5 C 27,2 C 22,8 C 64 % 1011,1 hPa 0,0 l/m 2 min 0 min 555 W/m 12,9 km/h (3 Bft) 95,65 %
27.07.2021 15:22 25,6 C 27,2 C 22,8 C 65 % 1011,1 hPa 0,0 l/m 2 min 0 min 826 W/m 6,4 km/h (2 Bft) 93,62 %
27.07.2021 15:24 25,7 C 27,8 C 22,8 C 65 % 1011,0 hPa 0,0 l/m 2 min 0 min 825 W/m 12,9 km/h (3 Bft) 97,87 %
27.07.2021 15:26 25,8 C 27,2 C 22,8 C 64 % 1011,0 hPa 0,0 l/m 2 min 0 min 586 W/m 12,9 km/h (3 Bft) 97,87 %
27.07.2021 15:28 25,6 C 26,1 C 22,8 C 63 % 1010,9 hPa 0,0 l/m 2 min 0 min 382 W/m 19,3 km/h (3 Bft) 97,87 %
27.07.2021 15:30 25,5 C 26,1 C 22,8 C 64 % 1010,9 hPa 0,0 l/m 2 min 0 min 443 W/m 16,1 km/h (3 Bft) 97,87 %
27.07.2021 15:32 25,4 C 26,1 C 22,8 C 64 % 1010,9 hPa 0,0 l/m 2 min 0 min 478 W/m 6,4 km/h (2 Bft) 95,65 %
27.07.2021 15:34 25,4 C 26,1 C 22,8 C 64 % 1010,9 hPa 0,0 l/m 2 min 0 min 508 W/m 12,9 km/h (3 Bft) 97,87 %
27.07.2021 15:36 25,4 C 26,1 C 22,8 C 64 % 1010,8 hPa 0,0 l/m 2 min 0 min 410 W/m 19,3 km/h (3 Bft) 97,87 %
27.07.2021 15:38 25,4 C 26,1 C 22,8 C 64 % 1010,8 hPa 0,0 l/m 2 min 0 min 411 W/m 12,9 km/h (3 Bft) 97,87 %
27.07.2021 15:40 25,4 C 26,1 C 22,8 C 64 % 1010,8 hPa 0,0 l/m 2 min 0 min 403 W/m 9,7 km/h (2 Bft) 93,62 %
27.07.2021 15:42 25,4 C 26,1 C 23,4 C 64 % 1010,8 hPa 0,0 l/m 2 min 0 min 379 W/m 16,1 km/h (3 Bft) 95,74 %
27.07.2021 15:44 25,3 C 25,6 C 22,8 C 63 % 1010,9 hPa 0,0 l/m 0 min 0 min 362 W/m 9,7 km/h (2 Bft) 97,83 %
27.07.2021 15:46 25,2 C 26,1 C 22,8 C 64 % 1010,9 hPa 0,0 l/m 2 min 0 min 371 W/m 6,4 km/h (2 Bft) 97,87 %
27.07.2021 15:48 25,3 C 26,1 C 22,8 C 66 % 1010,9 hPa 0,0 l/m 2 min 0 min 421 W/m 6,4 km/h (2 Bft) 97,87 %
27.07.2021 15:50 25,3 C 26,1 C 22,8 C 66 % 1010,8 hPa 0,0 l/m 2 min 0 min 509 W/m 9,7 km/h (2 Bft) 97,87 %
27.07.2021 15:52 25,3 C 26,1 C 22,8 C 65 % 1010,8 hPa 0,0 l/m 2 min 0 min 406 W/m 16,1 km/h (3 Bft) 100,00 %
27.07.2021 15:54 25,3 C 26,1 C 22,8 C 65 % 1010,9 hPa 0,0 l/m 0 min 0 min 359 W/m 12,9 km/h (3 Bft) 100,00 %
27.07.2021 15:56 25,2 C 25,6 C 22,8 C 65 % 1010,9 hPa 0,0 l/m 0 min 0 min 311 W/m 12,9 km/h (3 Bft) 100,00 %
27.07.2021 15:58 25,1 C 25,0 C 22,8 C 65 % 1010,9 hPa 0,0 l/m 0 min 0 min 270 W/m 6,4 km/h (2 Bft) 100,00 %
27.07.2021 16:00 25,1 C 25,0 C 22,8 C 65 % 1010,9 hPa 0,0 l/m 0 min 0 min 243 W/m 6,4 km/h (2 Bft) 100,00 %
27.07.2021 16:02 25,0 C 24,4 C 22,3 C 64 % 1010,8 hPa 0,0 l/m 0 min 0 min 204 W/m 9,7 km/h (2 Bft) 100,00 %
27.07.2021 16:04 25,0 C 24,4 C 22,3 C 65 % 1010,7 hPa 0,0 l/m 0 min 0 min 169 W/m 6,4 km/h (2 Bft) 100,00 %
27.07.2021 16:06 24,9 C 23,9 C 22,3 C 65 % 1010,8 hPa 0,0 l/m 0 min 0 min 138 W/m 6,4 km/h (2 Bft) 100,00 %
27.07.2021 16:08 24,8 C 23,9 C 21,7 C 65 % 1010,8 hPa 0,0 l/m 0 min 0 min 104 W/m 3,2 km/h (1 Bft) 100,00 %
27.07.2021 16:10 24,8 C 23,9 C 21,7 C 66 % 1010,8 hPa 0,0 l/m 0 min 0 min 81 W/m 3,2 km/h (1 Bft) 100,00 %
27.07.2021 16:12 24,7 C 23,9 C 21,7 C 66 % 1010,8 hPa 0,0 l/m 0 min 0 min 68 W/m 6,4 km/h (2 Bft) 100,00 %
27.07.2021 16:14 24,6 C 23,9 C 21,1 C 66 % 1010,8 hPa 0,0 l/m 0 min 0 min 65 W/m 12,9 km/h (3 Bft) 100,00 %
27.07.2021 16:16 24,5 C 23,3 C 19,5 C 69 % 1010,8 hPa 0,0 l/m 0 min 2 min 64 W/m 6,4 km/h (2 Bft) 98,15 %
27.07.2021 16:18 24,5 C 23,3 C 18,4 C 70 % 1010,9 hPa 0,0 l/m 0 min 2 min 71 W/m 9,7 km/h (2 Bft) 100,00 %
27.07.2021 16:20 24,5 C 22,8 C 17,8 C 72 % 1010,9 hPa 0,4 l/m 0 min 2 min 91 W/m 6,4 km/h (2 Bft) 100,00 %
27.07.2021 16:22 24,4 C 22,8 C 17,8 C 74 % 1010,9 hPa 0,2 l/m 0 min 2 min 111 W/m 6,4 km/h (2 Bft) 100,00 %
27.07.2021 16:24 24,3 C 22,8 C 17,8 C 76 % 1010,8 hPa 0,0 l/m 0 min 2 min 122 W/m 3,2 km/h (1 Bft) 100,00 %
27.07.2021 16:26 24,1 C 22,8 C 17,3 C 75 % 1010,8 hPa 0,0 l/m 0 min 0 min 124 W/m 12,9 km/h (3 Bft) 97,87 %
27.07.2021 16:28 23,9 C 22,2 C 17,3 C 75 % 1010,8 hPa 0,0 l/m 0 min 0 min 124 W/m 9,7 km/h (2 Bft) 100,00 %
27.07.2021 16:30 23,8 C 22,2 C 17,3 C 75 % 1010,9 hPa 0,0 l/m 0 min 0 min 128 W/m 3,2 km/h (1 Bft) 100,00 %
27.07.2021 16:32 23,6 C 22,2 C 17,3 C 75 % 1010,9 hPa 0,0 l/m 0 min 2 min 133 W/m 12,9 km/h (3 Bft) 100,00 %
27.07.2021 16:34 23,5 C 22,2 C 17,3 C 76 % 1010,9 hPa 0,0 l/m 0 min 0 min 121 W/m 3,2 km/h (1 Bft) 97,14 %
27.07.2021 16:36 23,4 C 22,2 C 17,3 C 76 % 1011,0 hPa 0,0 l/m 0 min 0 min 95 W/m 3,2 km/h (1 Bft) 98,31 %
27.07.2021 16:38 23,4 C 22,2 C 17,3 C 76 % 1011,1 hPa 0,0 l/m 0 min 0 min 75 W/m 16,1 km/h (3 Bft) 100,00 %
27.07.2021 16:40 23,3 C 22,2 C 16,7 C 76 % 1011,2 hPa 0,0 l/m 0 min 0 min 55 W/m 9,7 km/h (2 Bft) 100,00 %
27.07.2021 16:42 23,2 C 22,2 C 17,3 C 77 % 1011,2 hPa 0,0 l/m 0 min 0 min 42 W/m 19,3 km/h (3 Bft) 100,00 %
27.07.2021 16:44 22,9 C 21,1 C 16,7 C 76 % 1011,7 hPa 0,0 l/m 0 min 0 min 46 W/m 25,7 km/h (4 Bft) 100,00 %
27.07.2021 16:46 22,2 C 20,0 C 15,6 C 73 % 1011,7 hPa 0,0 l/m 0 min 0 min 42 W/m 22,5 km/h (4 Bft) 100,00 %
27.07.2021 16:48 21,3 C 19,4 C 15,0 C 74 % 1011,7 hPa 0,0 l/m 0 min 0 min 39 W/m 29,0 km/h (5 Bft) 97,87 %
27.07.2021 16:50 20,6 C 18,3 C 14,5 C 75 % 1011,8 hPa 0,0 l/m 0 min 0 min 52 W/m 25,7 km/h (4 Bft) 100,00 %
27.07.2021 16:52 19,9 C 18,3 C 13,9 C 77 % 1011,6 hPa 0,0 l/m 0 min 0 min 49 W/m 19,3 km/h (3 Bft) 95,74 %
27.07.2021 16:54 19,5 C 18,3 C 13,9 C 78 % 1011,6 hPa 0,0 l/m 0 min 2 min 39 W/m 19,3 km/h (3 Bft) 100,00 %
27.07.2021 16:56 19,3 C 18,3 C 13,9 C 79 % 1011,5 hPa 0,0 l/m 0 min 2 min 44 W/m 32,2 km/h (5 Bft) 97,87 %
27.07.2021 16:58 19,1 C 17,8 C 13,9 C 80 % 1011,5 hPa 0,0 l/m 0 min 2 min 31 W/m 16,1 km/h (3 Bft) 100,00 %
27.07.2021 17:00 18,9 C 17,8 C 13,9 C 81 % 1011,6 hPa 0,0 l/m 0 min 2 min 22 W/m 12,9 km/h (3 Bft) 100,00 %
27.07.2021 17:02 18,8 C 17,8 C 13,9 C 82 % 1011,5 hPa 0,0 l/m 0 min 2 min 21 W/m 12,9 km/h (3 Bft) 97,92 %
27.07.2021 17:04 18,6 C 17,2 C 13,9 C 84 % 1011,4 hPa 0,0 l/m 0 min 2 min 24 W/m 16,1 km/h (3 Bft) 100,00 %
27.07.2021 17:06 18,4 C 17,2 C 13,9 C 85 % 1011,5 hPa 0,0 l/m 0 min 2 min 32 W/m 29,0 km/h (5 Bft) 95,65 %
27.07.2021 17:08 18,3 C 17,2 C 13,9 C 85 % 1011,5 hPa 0,0 l/m 0 min 2 min 36 W/m 19,3 km/h (3 Bft) 95,74 %
27.07.2021 17:10 18,3 C 17,2 C 14,5 C 87 % 1011,6 hPa 0,0 l/m 0 min 2 min 35 W/m 19,3 km/h (3 Bft) 95,83 %
27.07.2021 17:12 18,2 C 17,2 C 14,5 C 87 % 1011,5 hPa 0,0 l/m 0 min 2 min 21 W/m 32,2 km/h (5 Bft) 93,62 %
27.07.2021 17:14 18,1 C 16,7 C 13,9 C 87 % 1011,7 hPa 0,2 l/m 0 min 2 min 13 W/m 16,1 km/h (3 Bft) 97,87 %
27.07.2021 17:16 18,0 C 16,1 C 13,9 C 87 % 1011,9 hPa 0,2 l/m 0 min 2 min 12 W/m 25,7 km/h (4 Bft) 91,49 %
27.07.2021 17:18 17,9 C 15,6 C 13,9 C 87 % 1011,9 hPa 0,8 l/m 0 min 2 min 12 W/m 19,3 km/h (3 Bft) 95,65 %
27.07.2021 17:20 17,7 C 15,6 C 13,9 C 88 % 1012,0 hPa 1,0 l/m 0 min 2 min 16 W/m 19,3 km/h (3 Bft) 95,74 %
27.07.2021 17:22 17,5 C 15,6 C 13,9 C 89 % 1011,8 hPa 0,6 l/m 0 min 2 min 19 W/m 12,9 km/h (3 Bft) 95,74 %
27.07.2021 17:24 17,5 C 15,6 C 13,9 C 89 % 1011,8 hPa 0,2 l/m 0 min 2 min 21 W/m 6,4 km/h (2 Bft) 91,49 %
27.07.2021 17:26 17,4 C 15,6 C 13,9 C 89 % 1011,6 hPa 0,2 l/m 0 min 2 min 22 W/m 3,2 km/h (1 Bft) 95,74 %
27.07.2021 17:28 17,4 C 15,6 C 13,9 C 89 % 1011,9 hPa 0,0 l/m 0 min 2 min 24 W/m 6,4 km/h (2 Bft) 95,74 %
27.07.2021 17:30 17,3 C 15,6 C 13,9 C 90 % 1012,0 hPa 0,0 l/m 0 min 2 min 27 W/m 6,4 km/h (2 Bft) 95,65 %
27.07.2021 17:32 17,3 C 15,6 C 13,9 C 90 % 1012,0 hPa 0,0 l/m 0 min 2 min 32 W/m 6,4 km/h (2 Bft) 93,62 %
27.07.2021 17:34 17,3 C 15,6 C 13,9 C 90 % 1012,0 hPa 0,0 l/m 0 min 0 min 34 W/m 6,4 km/h (2 Bft) 95,74 %
27.07.2021 17:36 17,2 C 15,6 C 13,9 C 90 % 1012,0 hPa 0,0 l/m 0 min 2 min 36 W/m 6,4 km/h (2 Bft) 91,49 %
27.07.2021 17:38 17,1 C 15,6 C 13,9 C 90 % 1011,8 hPa 0,0 l/m 0 min 2 min 40 W/m 6,4 km/h (2 Bft) 95,74 %
27.07.2021 17:40 17,1 C 15,6 C 14,5 C 90 % 1011,8 hPa 0,0 l/m 0 min 2 min 45 W/m 3,2 km/h (1 Bft) 97,87 %
27.07.2021 17:42 17,2 C 16,1 C 14,5 C 91 % 1011,7 hPa 0,0 l/m 0 min 2 min 52 W/m 3,2 km/h (1 Bft) 93,48 %
27.07.2021 17:44 17,2 C 16,1 C 14,5 C 91 % 1011,7 hPa 0,0 l/m 0 min 0 min 60 W/m 3,2 km/h (1 Bft) 95,74 %
27.07.2021 17:46 17,2 C 16,1 C 14,5 C 91 % 1011,6 hPa 0,0 l/m 0 min 2 min 69 W/m 3,2 km/h (1 Bft) 95,74 %
27.07.2021 17:48 17,3 C 16,7 C 15,0 C 91 % 1011,6 hPa 0,0 l/m 0 min 2 min 86 W/m 6,4 km/h (2 Bft) 95,74 %
27.07.2021 17:50 17,3 C 16,7 C 14,5 C 92 % 1011,6 hPa 0,0 l/m 0 min 0 min 94 W/m 6,4 km/h (2 Bft) 95,74 %
27.07.2021 17:52 17,3 C 16,7 C 15,0 C 92 % 1011,6 hPa 0,0 l/m 0 min 2 min 102 W/m 3,2 km/h (1 Bft) 97,87 %
27.07.2021 17:54 17,3 C 16,7 C 14,5 C 92 % 1011,6 hPa 0,0 l/m 0 min 2 min 110 W/m 3,2 km/h (1 Bft) 95,65 %
27.07.2021 17:56 17,4 C 16,7 C 15,0 C 92 % 1011,5 hPa 0,0 l/m 0 min 2 min 114 W/m 3,2 km/h (1 Bft) 93,62 %
27.07.2021 17:58 17,4 C 16,7 C 15,0 C 92 % 1011,5 hPa 0,0 l/m 0 min 0 min 116 W/m 3,2 km/h (1 Bft) 97,87 %
27.07.2021 18:00 17,4 C 16,7 C 14,5 C 92 % 1011,5 hPa 0,0 l/m 0 min 0 min 114 W/m 6,4 km/h (2 Bft) 95,74 %
27.07.2021 18:02 17,4 C 16,7 C 15,0 C 92 % 1011,4 hPa 0,0 l/m 0 min 2 min 109 W/m 3,2 km/h (1 Bft) 93,62 %
27.07.2021 18:04 17,4 C 16,7 C 15,0 C 92 % 1011,5 hPa 0,0 l/m 0 min 0 min 100 W/m 3,2 km/h (1 Bft) 95,74 %
27.07.2021 18:08 17,4 C 16,1 C 15,0 C 93 % 1011,5 hPa 0,0 l/m 0 min 0 min 81 W/m 6,4 km/h (2 Bft) 95,51 %
27.07.2021 18:10 17,4 C 16,1 C 15,0 C 92 % 1011,5 hPa 0,2 l/m 0 min 2 min 62 W/m 6,4 km/h (2 Bft) 95,74 %
27.07.2021 18:12 17,4 C 16,7 C 15,0 C 93 % 1011,6 hPa 0,0 l/m 0 min 2 min 52 W/m 6,4 km/h (2 Bft) 95,74 %
27.07.2021 18:14 17,4 C 16,7 C 15,0 C 93 % 1011,6 hPa 0,0 l/m 0 min 2 min 53 W/m 3,2 km/h (1 Bft) 95,74 %
27.07.2021 18:16 17,4 C 16,7 C 15,0 C 93 % 1011,6 hPa 0,0 l/m 0 min 2 min 53 W/m 6,4 km/h (2 Bft) 91,49 %
27.07.2021 18:18 17,4 C 16,7 C 15,0 C 93 % 1011,7 hPa 0,0 l/m 0 min 2 min 47 W/m 3,2 km/h (1 Bft) 95,65 %
27.07.2021 18:20 17,4 C 16,7 C 15,0 C 93 % 1011,7 hPa 0,0 l/m 0 min 2 min 45 W/m 3,2 km/h (1 Bft) 91,49 %
27.07.2021 18:22 17,4 C 16,7 C 15,0 C 93 % 1011,8 hPa 0,2 l/m 0 min 2 min 47 W/m 6,4 km/h (2 Bft) 95,74 %
27.07.2021 18:24 17,4 C 16,7 C 15,0 C 93 % 1011,8 hPa 0,0 l/m 0 min 2 min 60 W/m 6,4 km/h (2 Bft) 95,74 %
27.07.2021 18:26 17,4 C 16,7 C 15,0 C 93 % 1011,8 hPa 0,0 l/m 0 min 2 min 74 W/m 12,9 km/h (3 Bft) 95,74 %
27.07.2021 18:28 17,4 C 16,7 C 15,0 C 93 % 1011,8 hPa 0,0 l/m 0 min 2 min 68 W/m 6,4 km/h (2 Bft) 93,62 %
27.07.2021 18:30 17,4 C 16,7 C 15,0 C 93 % 1011,8 hPa 0,0 l/m 0 min 0 min 48 W/m 6,4 km/h (2 Bft) 95,74 %
27.07.2021 18:32 17,3 C 16,7 C 15,0 C 93 % 1011,8 hPa 0,0 l/m 0 min 0 min 36 W/m 6,4 km/h (2 Bft) 93,48 %
27.07.2021 18:34 17,3 C 16,7 C 15,0 C 93 % 1011,8 hPa 0,0 l/m 0 min 0 min 29 W/m 6,4 km/h (2 Bft) 97,87 %
27.07.2021 18:36 17,3 C 16,1 C 15,0 C 93 % 1011,9 hPa 0,0 l/m 0 min 0 min 18 W/m 6,4 km/h (2 Bft) 98,31 %
27.07.2021 18:38 17,3 C 16,7 C 15,0 C 93 % 1011,9 hPa 0,0 l/m 0 min 2 min 15 W/m 6,4 km/h (2 Bft) 95,74 %
27.07.2021 18:40 17,3 C 16,7 C 15,0 C 93 % 1011,9 hPa 0,0 l/m 0 min 2 min 25 W/m 12,9 km/h (3 Bft) 97,14 %
27.07.2021 18:42 17,3 C 16,1 C 15,0 C 93 % 1011,8 hPa 0,0 l/m 0 min 2 min 31 W/m 12,9 km/h (3 Bft) 97,83 %
27.07.2021 18:44 17,3 C 16,1 C 15,0 C 93 % 1011,8 hPa 0,0 l/m 0 min 2 min 33 W/m 9,7 km/h (2 Bft) 97,87 %
27.07.2021 18:46 17,3 C 16,1 C 15,0 C 93 % 1011,8 hPa 0,0 l/m 0 min 2 min 29 W/m 12,9 km/h (3 Bft) 100,00 %
27.07.2021 18:48 17,3 C 16,1 C 15,0 C 93 % 1011,8 hPa 0,4 l/m 0 min 2 min 26 W/m 6,4 km/h (2 Bft) 97,87 %
27.07.2021 18:50 17,3 C 16,1 C 15,0 C 94 % 1011,8 hPa 0,0 l/m 0 min 2 min 26 W/m 6,4 km/h (2 Bft) 100,00 %
27.07.2021 18:52 17,3 C 16,1 C 15,0 C 94 % 1011,8 hPa 0,2 l/m 0 min 2 min 25 W/m 9,7 km/h (2 Bft) 97,87 %
27.07.2021 18:54 17,3 C 16,1 C 15,0 C 94 % 1011,8 hPa 0,2 l/m 0 min 2 min 25 W/m 9,7 km/h (2 Bft) 100,00 %
27.07.2021 18:56 17,3 C 16,1 C 15,0 C 94 % 1011,8 hPa 0,2 l/m 0 min 2 min 25 W/m 12,9 km/h (3 Bft) 100,00 %
27.07.2021 18:58 17,3 C 16,1 C 15,0 C 94 % 1011,9 hPa 0,2 l/m 0 min 2 min 26 W/m 6,4 km/h (2 Bft) 97,87 %
27.07.2021 19:00 17,2 C 16,1 C 15,0 C 94 % 1011,8 hPa 0,2 l/m 0 min 2 min 27 W/m 16,1 km/h (3 Bft) 97,87 %
27.07.2021 19:02 17,1 C 16,1 C 15,0 C 94 % 1011,7 hPa 0,2 l/m 0 min 2 min 29 W/m 6,4 km/h (2 Bft) 100,00 %
27.07.2021 19:04 17,1 C 16,1 C 15,0 C 94 % 1011,5 hPa 0,0 l/m 0 min 2 min 33 W/m 3,2 km/h (1 Bft) 100,00 %
27.07.2021 19:06 17,1 C 16,1 C 15,6 C 94 % 1011,5 hPa 0,0 l/m 0 min 2 min 36 W/m 9,7 km/h (2 Bft) 100,00 %
27.07.2021 19:08 17,1 C 16,1 C 15,6 C 94 % 1011,4 hPa 0,0 l/m 0 min 2 min 39 W/m 6,4 km/h (2 Bft) 97,87 %
27.07.2021 19:10 17,1 C 16,1 C 15,6 C 94 % 1011,5 hPa 0,0 l/m 0 min 0 min 41 W/m 16,1 km/h (3 Bft) 100,00 %
27.07.2021 19:12 17,1 C 16,1 C 15,6 C 94 % 1011,5 hPa 0,2 l/m 0 min 0 min 43 W/m 9,7 km/h (2 Bft) 100,00 %
27.07.2021 19:14 17,1 C 16,1 C 15,6 C 94 % 1011,5 hPa 0,0 l/m 0 min 0 min 46 W/m 12,9 km/h (3 Bft) 97,87 %
27.07.2021 19:16 17,1 C 16,1 C 15,6 C 95 % 1011,5 hPa 0,0 l/m 0 min 0 min 48 W/m 12,9 km/h (3 Bft) 100,00 %
27.07.2021 19:18 17,2 C 16,1 C 15,6 C 95 % 1011,5 hPa 0,0 l/m 0 min 0 min 50 W/m 12,9 km/h (3 Bft) 100,00 %
27.07.2021 19:20 17,3 C 16,1 C 15,6 C 95 % 1011,5 hPa 0,0 l/m 0 min 0 min 51 W/m 12,9 km/h (3 Bft) 100,00 %
27.07.2021 19:22 17,3 C 16,1 C 15,6 C 95 % 1011,5 hPa 0,0 l/m 0 min 0 min 50 W/m 6,4 km/h (2 Bft) 97,87 %
27.07.2021 19:24 17,3 C 16,7 C 15,6 C 95 % 1011,4 hPa 0,0 l/m 0 min 0 min 51 W/m 6,4 km/h (2 Bft) 97,87 %
27.07.2021 19:26 17,3 C 16,7 C 15,6 C 95 % 1011,4 hPa 0,0 l/m 0 min 0 min 52 W/m 9,7 km/h (2 Bft) 100,00 %
27.07.2021 19:28 17,3 C 16,7 C 15,6 C 95 % 1011,3 hPa 0,0 l/m 0 min 0 min 54 W/m 9,7 km/h (2 Bft) 100,00 %
27.07.2021 19:30 17,4 C 16,7 C 16,1 C 95 % 1011,4 hPa 0,0 l/m 0 min 0 min 56 W/m 6,4 km/h (2 Bft) 100,00 %
27.07.2021 19:32 17,4 C 16,7 C 15,6 C 95 % 1011,3 hPa 0,0 l/m 0 min 0 min 56 W/m 12,9 km/h (3 Bft) 100,00 %
27.07.2021 19:34 17,4 C 16,7 C 15,6 C 95 % 1011,2 hPa 0,0 l/m 0 min 0 min 55 W/m 6,4 km/h (2 Bft) 97,87 %
27.07.2021 19:36 17,4 C 16,7 C 16,1 C 95 % 1011,2 hPa 0,0 l/m 0 min 0 min 53 W/m 3,2 km/h (1 Bft) 100,00 %
27.07.2021 19:38 17,4 C 16,7 C 16,1 C 95 % 1011,1 hPa 0,0 l/m 0 min 0 min 50 W/m 6,4 km/h (2 Bft) 100,00 %
27.07.2021 19:40 17,4 C 16,7 C 16,1 C 95 % 1011,2 hPa 0,0 l/m 0 min 0 min 46 W/m 6,4 km/h (2 Bft) 100,00 %
27.07.2021 19:42 17,4 C 16,7 C 16,1 C 95 % 1011,0 hPa 0,0 l/m 0 min 0 min 44 W/m 3,2 km/h (1 Bft) 97,87 %
27.07.2021 19:44 17,4 C 16,7 C 16,1 C 95 % 1011,1 hPa 0,0 l/m 0 min 0 min 40 W/m 6,4 km/h (2 Bft) 100,00 %
27.07.2021 19:46 17,4 C 16,7 C 16,1 C 95 % 1011,0 hPa 0,0 l/m 0 min 0 min 39 W/m 6,4 km/h (2 Bft) 95,74 %
27.07.2021 19:48 17,4 C 16,7 C 16,1 C 95 % 1011,0 hPa 0,0 l/m 0 min 2 min 38 W/m 6,4 km/h (2 Bft) 97,87 %
27.07.2021 19:50 17,4 C 16,7 C 16,1 C 95 % 1011,0 hPa 0,0 l/m 0 min 2 min 36 W/m 6,4 km/h (2 Bft) 97,87 %
27.07.2021 19:52 17,4 C 16,7 C 16,1 C 95 % 1011,0 hPa 0,0 l/m 0 min 0 min 35 W/m 6,4 km/h (2 Bft) 97,83 %
27.07.2021 19:54 17,4 C 16,7 C 16,1 C 95 % 1011,0 hPa 0,0 l/m 0 min 0 min 33 W/m 6,4 km/h (2 Bft) 97,87 %
27.07.2021 19:56 17,4 C 16,7 C 16,1 C 95 % 1011,0 hPa 0,0 l/m 0 min 0 min 33 W/m 12,9 km/h (3 Bft) 95,74 %
27.07.2021 19:58 17,4 C 16,7 C 16,1 C 95 % 1011,0 hPa 0,0 l/m 0 min 0 min 33 W/m 6,4 km/h (2 Bft) 97,87 %
27.07.2021 20:00 17,4 C 16,7 C 16,1 C 95 % 1011,0 hPa 0,0 l/m 0 min 0 min 33 W/m 6,4 km/h (2 Bft) 97,87 %
27.07.2021 20:02 17,3 C 16,7 C 16,1 C 95 % 1010,9 hPa 0,0 l/m 0 min 0 min 36 W/m 6,4 km/h (2 Bft) 97,87 %
27.07.2021 20:04 17,3 C 16,7 C 16,1 C 95 % 1011,0 hPa 0,0 l/m 0 min 0 min 40 W/m 6,4 km/h (2 Bft) 97,83 %
27.07.2021 20:06 17,3 C 16,7 C 16,1 C 95 % 1011,1 hPa 0,0 l/m 0 min 0 min 44 W/m 6,4 km/h (2 Bft) 97,87 %
27.07.2021 20:08 17,3 C 16,7 C 16,1 C 95 % 1011,0 hPa 0,0 l/m 0 min 0 min 48 W/m 3,2 km/h (1 Bft) 97,87 %
27.07.2021 20:10 17,4 C 16,7 C 16,1 C 95 % 1011,0 hPa 0,0 l/m 0 min 0 min 50 W/m 3,2 km/h (1 Bft) 95,74 %
27.07.2021 20:12 17,4 C 16,7 C 16,1 C 96 % 1011,0 hPa 0,0 l/m 0 min 0 min 50 W/m 3,2 km/h (1 Bft) 97,87 %
27.07.2021 20:14 17,4 C 16,7 C 16,1 C 96 % 1011,0 hPa 0,0 l/m 0 min 0 min 47 W/m 3,2 km/h (1 Bft) 97,87 %
27.07.2021 20:16 17,4 C 16,7 C 16,1 C 96 % 1010,9 hPa 0,0 l/m 0 min 0 min 47 W/m 6,4 km/h (2 Bft) 97,83 %
27.07.2021 20:18 17,4 C 16,7 C 16,1 C 96 % 1011,0 hPa 0,0 l/m 0 min 0 min 48 W/m 6,4 km/h (2 Bft) 97,87 %
27.07.2021 20:20 17,4 C 16,7 C 16,1 C 96 % 1011,0 hPa 0,0 l/m 0 min 0 min 49 W/m 6,4 km/h (2 Bft) 97,87 %
27.07.2021 20:22 17,4 C 16,7 C 16,1 C 96 % 1011,0 hPa 0,0 l/m 0 min 0 min 48 W/m 6,4 km/h (2 Bft) 97,87 %
27.07.2021 20:24 17,4 C 16,7 C 16,1 C 96 % 1011,0 hPa 0,0 l/m 0 min 0 min 50 W/m 6,4 km/h (2 Bft) 97,87 %
27.07.2021 20:26 17,4 C 16,7 C 16,1 C 96 % 1011,0 hPa 0,0 l/m 0 min 0 min 54 W/m 3,2 km/h (1 Bft) 97,87 %
27.07.2021 20:28 17,5 C 16,7 C 16,1 C 96 % 1010,9 hPa 0,0 l/m 0 min 0 min 55 W/m 6,4 km/h (2 Bft) 97,83 %
27.07.2021 20:30 17,4 C 16,7 C 16,1 C 96 % 1010,9 hPa 0,0 l/m 0 min 0 min 58 W/m 6,4 km/h (2 Bft) 97,87 %
27.07.2021 20:32 17,4 C 16,7 C 16,1 C 96 % 1010,9 hPa 0,0 l/m 0 min 0 min 59 W/m 3,2 km/h (1 Bft) 100,00 %
27.07.2021 20:34 17,4 C 16,7 C 16,1 C 96 % 1010,9 hPa 0,0 l/m 2 min 0 min 60 W/m 6,4 km/h (2 Bft) 100,00 %
27.07.2021 20:36 17,4 C 16,7 C 16,1 C 96 % 1010,9 hPa 0,0 l/m 2 min 0 min 62 W/m 6,4 km/h (2 Bft) 100,00 %
27.07.2021 20:38 17,4 C 16,7 C 16,1 C 96 % 1010,9 hPa 0,0 l/m 2 min 0 min 62 W/m 6,4 km/h (2 Bft) 100,00 %
27.07.2021 20:40 17,4 C 16,7 C 16,1 C 96 % 1010,8 hPa 0,0 l/m 2 min 0 min 59 W/m 3,2 km/h (1 Bft) 100,00 %
27.07.2021 20:42 17,4 C 16,7 C 16,1 C 96 % 1010,8 hPa 0,0 l/m 2 min 0 min 56 W/m 3,2 km/h (1 Bft) 97,87 %
27.07.2021 20:44 17,4 C 16,7 C 16,1 C 96 % 1010,9 hPa 0,0 l/m 2 min 0 min 54 W/m 6,4 km/h (2 Bft) 100,00 %
27.07.2021 20:46 17,4 C 16,7 C 16,1 C 96 % 1010,9 hPa 0,0 l/m 2 min 0 min 51 W/m 12,9 km/h (3 Bft) 100,00 %
27.07.2021 20:48 17,4 C 16,7 C 16,1 C 96 % 1010,8 hPa 0,0 l/m 2 min 0 min 46 W/m 12,9 km/h (3 Bft) 100,00 %
27.07.2021 20:50 17,4 C 16,7 C 16,1 C 96 % 1010,9 hPa 0,0 l/m 2 min 0 min 41 W/m 12,9 km/h (3 Bft) 93,48 %
27.07.2021 20:52 17,4 C 16,7 C 16,1 C 96 % 1010,9 hPa 0,0 l/m 2 min 0 min 37 W/m 12,9 km/h (3 Bft) 97,87 %
27.07.2021 20:54 17,4 C 16,7 C 16,1 C 96 % 1010,9 hPa 0,0 l/m 0 min 0 min 32 W/m 6,4 km/h (2 Bft) 98,00 %
27.07.2021 20:56 17,4 C 16,7 C 16,1 C 95 % 1010,8 hPa 0,0 l/m 0 min 0 min 30 W/m 6,4 km/h (2 Bft) 95,74 %
27.07.2021 20:58 17,3 C 16,7 C 16,1 C 95 % 1010,9 hPa 0,0 l/m 0 min 0 min 26 W/m 6,4 km/h (2 Bft) 97,87 %
27.07.2021 21:00 17,3 C 16,7 C 16,1 C 95 % 1010,8 hPa 0,0 l/m 0 min 0 min 24 W/m 12,9 km/h (3 Bft) 98,08 %
27.07.2021 21:02 17,3 C 16,7 C 16,1 C 95 % 1010,9 hPa 0,0 l/m 0 min 0 min 21 W/m 6,4 km/h (2 Bft) 97,87 %
27.07.2021 21:04 17,3 C 16,7 C 16,1 C 95 % 1010,8 hPa 0,0 l/m 0 min 0 min 19 W/m 6,4 km/h (2 Bft) 91,49 %
27.07.2021 21:06 17,3 C 16,7 C 16,1 C 95 % 1010,8 hPa 0,0 l/m 0 min 0 min 17 W/m 12,9 km/h (3 Bft) 97,87 %
27.07.2021 21:08 17,3 C 16,7 C 16,1 C 95 % 1010,8 hPa 0,0 l/m 0 min 0 min 15 W/m 6,4 km/h (2 Bft) 97,87 %
27.07.2021 21:10 17,3 C 16,7 C 16,1 C 95 % 1010,8 hPa 0,0 l/m 0 min 0 min 12 W/m 6,4 km/h (2 Bft) 97,87 %
27.07.2021 21:12 17,3 C 16,1 C 16,1 C 95 % 1010,8 hPa 0,0 l/m 0 min 0 min 11 W/m 6,4 km/h (2 Bft) 95,65 %
27.07.2021 21:14 17,2 C 16,1 C 16,1 C 95 % 1010,8 hPa 0,0 l/m 0 min 0 min 10 W/m 16,1 km/h (3 Bft) 97,87 %
27.07.2021 21:16 17,2 C 16,1 C 16,1 C 95 % 1010,8 hPa 0,0 l/m 0 min 0 min 9 W/m 6,4 km/h (2 Bft) 93,62 %
27.07.2021 21:18 17,2 C 16,1 C 16,1 C 95 % 1010,8 hPa 0,0 l/m 0 min 0 min 8 W/m 12,9 km/h (3 Bft) 91,49 %
27.07.2021 21:20 17,1 C 16,1 C 16,1 C 95 % 1010,8 hPa 0,0 l/m 0 min 0 min 6 W/m 6,4 km/h (2 Bft) 85,11 %
27.07.2021 21:22 17,1 C 16,1 C 16,1 C 95 % 1010,8 hPa 0,0 l/m 0 min 0 min 5 W/m 6,4 km/h (2 Bft) 95,74 %
27.07.2021 21:24 17,1 C 16,1 C 16,1 C 95 % 1010,8 hPa 0,0 l/m 0 min 0 min 5 W/m 12,9 km/h (3 Bft) 97,83 %
27.07.2021 21:26 17,1 C 16,1 C 16,1 C 95 % 1010,8 hPa 0,0 l/m 0 min 0 min 4 W/m 6,4 km/h (2 Bft) 93,62 %
27.07.2021 21:28 17,1 C 16,1 C 16,1 C 95 % 1010,7 hPa 0,0 l/m 0 min 0 min 0 W/m 12,9 km/h (3 Bft) 95,74 %
27.07.2021 21:30 17,1 C 16,1 C 16,1 C 95 % 1010,7 hPa 0,0 l/m 0 min 0 min 0 W/m 12,9 km/h (3 Bft) 97,22 %
27.07.2021 21:32 17,0 C 16,1 C 16,1 C 95 % 1010,8 hPa 0,0 l/m 0 min 0 min 0 W/m 16,1 km/h (3 Bft) 97,92 %
27.07.2021 21:34 17,0 C 16,1 C 16,1 C 95 % 1010,8 hPa 0,0 l/m 0 min 0 min 0 W/m 12,9 km/h (3 Bft) 97,87 %
27.07.2021 21:36 17,0 C 16,1 C 16,1 C 95 % 1010,9 hPa 0,0 l/m 0 min 0 min 0 W/m 9,7 km/h (2 Bft) 95,74 %
27.07.2021 21:38 17,0 C 16,1 C 16,1 C 95 % 1010,9 hPa 0,0 l/m 0 min 0 min 0 W/m 12,9 km/h (3 Bft) 97,87 %
27.07.2021 21:40 17,0 C 16,1 C 16,1 C 95 % 1011,0 hPa 0,0 l/m 0 min 0 min 0 W/m 16,1 km/h (3 Bft) 100,00 %
27.07.2021 21:42 17,0 C 16,1 C 16,1 C 95 % 1011,0 hPa 0,0 l/m 0 min 0 min 0 W/m 9,7 km/h (2 Bft) 100,00 %
27.07.2021 21:44 17,0 C 16,1 C 16,1 C 95 % 1011,1 hPa 0,0 l/m 0 min 0 min 0 W/m 6,4 km/h (2 Bft) 97,87 %
27.07.2021 21:46 17,0 C 16,1 C 16,1 C 95 % 1011,1 hPa 0,0 l/m 0 min 0 min 0 W/m 16,1 km/h (3 Bft) 100,00 %
27.07.2021 21:48 16,9 C 16,1 C 16,1 C 95 % 1011,2 hPa 0,0 l/m 0 min 0 min 0 W/m 12,9 km/h (3 Bft) 100,00 %
27.07.2021 21:50 16,9 C 16,1 C 16,1 C 95 % 1011,1 hPa 0,0 l/m 0 min 0 min 0 W/m 19,3 km/h (3 Bft) 100,00 %
27.07.2021 21:52 16,9 C 16,1 C 16,1 C 95 % 1011,1 hPa 0,0 l/m 0 min 0 min 0 W/m 16,1 km/h (3 Bft) 100,00 %
27.07.2021 21:54 16,9 C 16,1 C 16,1 C 95 % 1011,2 hPa 0,0 l/m 0 min 0 min 0 W/m 12,9 km/h (3 Bft) 97,87 %
27.07.2021 21:56 16,9 C 16,1 C 16,1 C 95 % 1011,2 hPa 0,0 l/m 0 min 0 min 0 W/m 6,4 km/h (2 Bft) 100,00 %
27.07.2021 21:58 16,9 C 16,1 C 16,1 C 95 % 1011,2 hPa 0,0 l/m 0 min 0 min 0 W/m 12,9 km/h (3 Bft) 100,00 %
27.07.2021 22:00 16,8 C 16,1 C 16,1 C 95 % 1011,2 hPa 0,0 l/m 0 min 0 min 0 W/m 6,4 km/h (2 Bft) 100,00 %
27.07.2021 22:02 16,8 C 16,1 C 16,1 C 95 % 1011,2 hPa 0,0 l/m 0 min 0 min 0 W/m 6,4 km/h (2 Bft) 100,00 %
27.07.2021 22:04 16,8 C 16,1 C 16,1 C 95 % 1011,3 hPa 0,0 l/m 0 min 0 min 0 W/m 6,4 km/h (2 Bft) 100,00 %
27.07.2021 22:06 16,8 C 15,6 C 16,1 C 95 % 1011,3 hPa 0,0 l/m 0 min 0 min 0 W/m 6,4 km/h (2 Bft) 100,00 %
27.07.2021 22:08 16,8 C 15,6 C 16,1 C 95 % 1011,3 hPa 0,0 l/m 0 min 0 min 0 W/m 6,4 km/h (2 Bft) 100,00 %
27.07.2021 22:10 16,8 C 15,6 C 16,1 C 95 % 1011,3 hPa 0,0 l/m 0 min 0 min 0 W/m 6,4 km/h (2 Bft) 97,87 %
27.07.2021 22:12 16,8 C 15,6 C 16,1 C 95 % 1011,4 hPa 0,0 l/m 0 min 0 min 0 W/m 6,4 km/h (2 Bft) 100,00 %
27.07.2021 22:14 16,8 C 15,6 C 16,1 C 95 % 1011,3 hPa 0,0 l/m 0 min 0 min 0 W/m 6,4 km/h (2 Bft) 100,00 %
27.07.2021 22:16 16,8 C 15,6 C 16,1 C 95 % 1011,3 hPa 0,0 l/m 0 min 0 min 0 W/m 6,4 km/h (2 Bft) 100,00 %
27.07.2021 22:18 16,7 C 16,1 C 16,1 C 95 % 1011,3 hPa 0,0 l/m 0 min 0 min 0 W/m 6,4 km/h (2 Bft) 100,00 %
27.07.2021 22:20 16,7 C 15,6 C 16,1 C 95 % 1011,3 hPa 0,0 l/m 0 min 0 min 0 W/m 6,4 km/h (2 Bft) 95,74 %
27.07.2021 22:22 16,7 C 15,6 C 16,1 C 95 % 1011,4 hPa 0,0 l/m 0 min 0 min 0 W/m 6,4 km/h (2 Bft) 100,00 %
27.07.2021 22:24 16,7 C 15,6 C 16,1 C 95 % 1011,3 hPa 0,0 l/m 0 min 0 min 0 W/m 3,2 km/h (1 Bft) 97,87 %
27.07.2021 22:26 16,7 C 15,6 C 16,1 C 95 % 1011,3 hPa 0,0 l/m 0 min 0 min 0 W/m 6,4 km/h (2 Bft) 97,83 %
27.07.2021 22:28 16,7 C 15,6 C 16,1 C 95 % 1011,3 hPa 0,0 l/m 0 min 0 min 0 W/m 6,4 km/h (2 Bft) 97,87 %
27.07.2021 22:30 16,7 C 15,6 C 16,1 C 96 % 1011,3 hPa 0,0 l/m 0 min 0 min 0 W/m 6,4 km/h (2 Bft) 97,87 %
27.07.2021 22:32 16,7 C 15,6 C 16,1 C 96 % 1011,3 hPa 0,0 l/m 0 min 0 min 0 W/m 12,9 km/h (3 Bft) 97,87 %
27.07.2021 22:34 16,7 C 15,6 C 16,1 C 96 % 1011,3 hPa 0,0 l/m 0 min 0 min 0 W/m 3,2 km/h (1 Bft) 97,87 %
27.07.2021 22:36 16,7 C 15,6 C 16,1 C 96 % 1011,3 hPa 0,0 l/m 0 min 0 min 0 W/m 6,4 km/h (2 Bft) 97,87 %
27.07.2021 22:38 16,7 C 15,6 C 16,1 C 96 % 1011,3 hPa 0,0 l/m 0 min 0 min 0 W/m 6,4 km/h (2 Bft) 97,83 %
27.07.2021 22:40 16,7 C 15,6 C 16,1 C 96 % 1011,4 hPa 0,0 l/m 0 min 0 min 0 W/m 6,4 km/h (2 Bft) 97,87 %
27.07.2021 22:42 16,7 C 15,6 C 16,1 C 96 % 1011,4 hPa 0,0 l/m 0 min 0 min 0 W/m 6,4 km/h (2 Bft) 97,87 %
27.07.2021 22:44 16,7 C 16,1 C 16,1 C 96 % 1011,4 hPa 0,0 l/m 0 min 0 min 0 W/m 6,4 km/h (2 Bft) 97,87 %
27.07.2021 22:46 16,8 C 16,1 C 16,1 C 96 % 1011,3 hPa 0,0 l/m 0 min 0 min 0 W/m 6,4 km/h (2 Bft) 97,87 %
27.07.2021 22:48 16,8 C 16,1 C 16,1 C 96 % 1011,4 hPa 0,0 l/m 0 min 0 min 0 W/m 12,9 km/h (3 Bft) 95,74 %
27.07.2021 22:50 16,8 C 16,1 C 16,1 C 96 % 1011,4 hPa 0,0 l/m 0 min 0 min 0 W/m 3,2 km/h (1 Bft) 97,83 %
27.07.2021 22:52 16,8 C 16,1 C 16,1 C 96 % 1011,3 hPa 0,0 l/m 0 min 0 min 0 W/m 12,9 km/h (3 Bft) 97,87 %
27.07.2021 22:54 16,8 C 16,1 C 16,1 C 96 % 1011,3 hPa 0,0 l/m 0 min 0 min 0 W/m 3,2 km/h (1 Bft) 97,87 %
27.07.2021 22:56 16,8 C 16,1 C 16,1 C 96 % 1011,4 hPa 0,0 l/m 0 min 0 min 0 W/m 6,4 km/h (2 Bft) 95,74 %
27.07.2021 22:58 16,8 C 16,1 C 16,1 C 96 % 1011,3 hPa 0,0 l/m 0 min 0 min 0 W/m 6,4 km/h (2 Bft) 97,87 %
27.07.2021 23:00 16,8 C 16,1 C 16,1 C 96 % 1011,3 hPa 0,0 l/m 0 min 0 min 0 W/m 6,4 km/h (2 Bft) 97,87 %
27.07.2021 23:02 16,8 C 16,1 C 16,1 C 96 % 1011,3 hPa 0,0 l/m 0 min 0 min 0 W/m 6,4 km/h (2 Bft) 97,83 %
27.07.2021 23:04 16,8 C 16,1 C 16,1 C 96 % 1011,3 hPa 0,0 l/m 0 min 0 min 0 W/m 6,4 km/h (2 Bft) 97,87 %
27.07.2021 23:06 16,8 C 16,1 C 16,1 C 96 % 1011,3 hPa 0,0 l/m 0 min 0 min 0 W/m 3,2 km/h (1 Bft) 97,87 %
27.07.2021 23:08 16,8 C 16,1 C 16,1 C 96 % 1011,3 hPa 0,0 l/m 0 min 0 min 0 W/m 6,4 km/h (2 Bft) 97,87 %
27.07.2021 23:10 16,8 C 16,1 C 16,1 C 96 % 1011,3 hPa 0,0 l/m 0 min 0 min 0 W/m 6,4 km/h (2 Bft) 100,00 %
27.07.2021 23:12 16,8 C 16,1 C 16,1 C 96 % 1011,3 hPa 0,0 l/m 0 min 0 min 0 W/m 12,9 km/h (3 Bft) 100,00 %
27.07.2021 23:14 16,8 C 16,1 C 16,1 C 96 % 1011,3 hPa 0,0 l/m 0 min 0 min 0 W/m 6,4 km/h (2 Bft) 97,83 %
27.07.2021 23:16 16,8 C 16,1 C 16,1 C 96 % 1011,2 hPa 0,0 l/m 0 min 0 min 0 W/m 3,2 km/h (1 Bft) 100,00 %
27.07.2021 23:18 16,7 C 16,1 C 16,1 C 96 % 1011,3 hPa 0,0 l/m 0 min 0 min 0 W/m 6,4 km/h (2 Bft) 100,00 %
27.07.2021 23:20 16,7 C 15,6 C 16,1 C 96 % 1011,3 hPa 0,0 l/m 0 min 0 min 0 W/m 6,4 km/h (2 Bft) 100,00 %
27.07.2021 23:22 16,7 C 15,6 C 16,1 C 96 % 1011,3 hPa 0,0 l/m 0 min 0 min 0 W/m 3,2 km/h (1 Bft) 100,00 %
27.07.2021 23:24 16,7 C 16,1 C 16,1 C 96 % 1011,3 hPa 0,0 l/m 0 min 0 min 0 W/m 6,4 km/h (2 Bft) 97,87 %
27.07.2021 23:26 16,7 C 16,1 C 16,1 C 96 % 1011,2 hPa 0,0 l/m 0 min 0 min 0 W/m 3,2 km/h (1 Bft) 100,00 %
27.07.2021 23:28 16,7 C 16,1 C 16,1 C 96 % 1011,2 hPa 0,0 l/m 0 min 0 min 0 W/m 6,4 km/h (2 Bft) 100,00 %
27.07.2021 23:30 16,6 C 15,6 C 16,1 C 96 % 1011,2 hPa 0,0 l/m 0 min 0 min 0 W/m 6,4 km/h (2 Bft) 100,00 %
27.07.2021 23:32 16,6 C 16,1 C 16,1 C 96 % 1011,1 hPa 0,0 l/m 0 min 0 min 0 W/m 3,2 km/h (1 Bft) 97,87 %
27.07.2021 23:34 16,6 C 16,1 C 16,1 C 96 % 1011,2 hPa 0,0 l/m 0 min 0 min 0 W/m 12,9 km/h (3 Bft) 100,00 %
27.07.2021 23:36 16,6 C 16,1 C 16,1 C 96 % 1011,2 hPa 0,0 l/m 0 min 0 min 0 W/m 6,4 km/h (2 Bft) 97,83 %
27.07.2021 23:38 16,6 C 16,1 C 16,1 C 96 % 1011,2 hPa 0,0 l/m 0 min 0 min 0 W/m 6,4 km/h (2 Bft) 97,87 %
27.07.2021 23:40 16,6 C 16,1 C 16,1 C 96 % 1011,2 hPa 0,0 l/m 0 min 0 min 0 W/m 6,4 km/h (2 Bft) 100,00 %
27.07.2021 23:42 16,6 C 16,1 C 16,1 C 96 % 1011,2 hPa 0,0 l/m 0 min 0 min 0 W/m 9,7 km/h (2 Bft) 100,00 %
27.07.2021 23:44 16,6 C 16,1 C 16,1 C 96 % 1011,2 hPa 0,0 l/m 0 min 0 min 0 W/m 12,9 km/h (3 Bft) 97,87 %
27.07.2021 23:46 16,6 C 16,1 C 16,1 C 96 % 1011,2 hPa 0,0 l/m 0 min 0 min 0 W/m 6,4 km/h (2 Bft) 100,00 %
27.07.2021 23:48 16,6 C 16,1 C 16,1 C 96 % 1011,2 hPa 0,0 l/m 0 min 0 min 0 W/m 3,2 km/h (1 Bft) 95,65 %
27.07.2021 23:50 16,6 C 16,1 C 16,1 C 96 % 1011,2 hPa 0,0 l/m 0 min 0 min 0 W/m 3,2 km/h (1 Bft) 97,87 %
27.07.2021 23:52 16,7 C 16,1 C 16,1 C 96 % 1011,3 hPa 0,0 l/m 0 min 0 min 0 W/m 6,4 km/h (2 Bft) 97,87 %
27.07.2021 23:54 16,6 C 16,1 C 16,1 C 96 % 1011,3 hPa 0,0 l/m 0 min 0 min 0 W/m 9,7 km/h (2 Bft) 95,74 %
27.07.2021 23:56 16,7 C 16,1 C 16,1 C 96 % 1011,3 hPa 0,0 l/m 0 min 0 min 0 W/m 6,4 km/h (2 Bft) 97,87 %
27.07.2021 23:58 16,6 C 16,1 C 16,1 C 96 % 1011,3 hPa 0,0 l/m 0 min 0 min 0 W/m 3,2 km/h (1 Bft) 97,87 %
_ Min-Zeit 05:52 05:06 16:52 15:14 16:04 - - - - 03:20 07:06
Minimum _ 16,5 C 15,6 C 13,9 C 63 % 1010,7 hPa - - - - 0,0 km/h (0 Bft) 67,50 %
_ Max-Zeit 15:10 14:46 13:48 06:20 09:44 17:20 06:24 12:32 14:22 13:22 00:00
Maximum _ 25,9 C 28,3 C 25,6 C 96 % 1012,4 hPa 1,0 l/m 2 min 2 min 965 W/m 38,6 km/h
S (5 Bft)
100,00 %
Durchschnitt _ 19,3 C 19,1 C 18,0 C 87 % 1011,7 hPa #6,2 l/m #5:34 h #2:16 h 259 W/m 9,4 km/h (2 Bft) 97,56 %
© 2021 W. Hausmann